Time,TemperatureF,DewpointF,PressureIn,WindDirection,WindDirectionDegrees,WindSpeedMPH,WindSpeedGustMPH,Humidity,HourlyPrecipIn,Conditions,Clouds,dailyrainin,SolarRadiationWatts/m^2,SoftwareType,DateUTC
2013-01-07 00:00:00,32.9,27.9,30.14,ENE,58,0.0,0.0,81,0.00,,,0.00,0,TxWx,2013-01-07 05:00:00,
2013-01-07 00:05:00,32.6,28.0,30.14,SW,235,0.0,0.0,83,0.00,,,0.00,0,TxWx,2013-01-07 05:05:00,
2013-01-07 00:06:00,32.5,28.0,30.14,SSW,194,0.7,1.0,83,0.00,,,0.00,0,TxWx,2013-01-07 05:06:00,
2013-01-07 00:10:00,32.3,28.0,30.14,SW,233,0.7,1.0,84,0.00,,,0.00,0,TxWx,2013-01-07 05:10:00,
2013-01-07 00:11:00,32.2,28.0,30.14,SSW,211,1.1,1.1,84,0.00,,,0.00,0,TxWx,2013-01-07 05:11:00,
2013-01-07 00:15:00,32.3,28.1,30.14,WSW,243,0.0,0.0,84,0.00,,,0.00,0,TxWx,2013-01-07 05:15:00,
2013-01-07 00:16:00,32.1,28.0,30.14,WSW,242,0.0,0.0,84,0.00,,,0.00,0,TxWx,2013-01-07 05:16:00,
2013-01-07 00:17:00,32.1,28.0,30.14,ESE,103,0.0,0.0,84,0.00,,,0.00,0,TxWx,2013-01-07 05:17:00,
2013-01-07 00:20:00,31.9,28.1,30.14,East,88,0.7,1.0,85,0.00,,,0.00,0,TxWx,2013-01-07 05:20:00,
2013-01-07 00:21:00,31.9,28.1,30.14,SSW,200,2.6,3.0,85,0.00,,,0.00,0,TxWx,2013-01-07 05:21:00,
2013-01-07 00:22:00,31.9,28.2,30.14,SW,232,1.5,1.5,85,0.00,,,0.00,0,TxWx,2013-01-07 05:22:00,
2013-01-07 00:25:00,31.8,28.1,30.14,SSW,210,0.7,0.0,85,0.00,,,0.00,0,TxWx,2013-01-07 05:25:00,
2013-01-07 00:26:00,31.7,27.9,30.14,South,181,0.0,0.0,85,0.00,,,0.00,0,TxWx,2013-01-07 05:26:00,
2013-01-07 00:27:00,31.7,28.0,30.14,WNW,296,0.0,0.0,86,0.00,,,0.00,0,TxWx,2013-01-07 05:27:00,
2013-01-07 00:30:00,31.5,27.9,30.14,SSW,200,1.5,1.5,86,0.00,,,0.00,0,TxWx,2013-01-07 05:30:00,
2013-01-07 00:31:00,31.4,27.9,30.14,SSE,165,1.1,1.1,86,0.00,,,0.00,0,TxWx,2013-01-07 05:31:00,
2013-01-07 00:32:00,31.4,28.0,30.14,SE,138,0.3,0.0,86,0.00,,,0.00,0,TxWx,2013-01-07 05:32:00,
2013-01-07 00:35:00,31.3,27.9,30.14,ESE,114,2.3,2.3,87,0.00,,,0.00,0,TxWx,2013-01-07 05:35:00,
2013-01-07 00:36:00,31.2,27.9,30.14,SSE,154,0.7,0.0,87,0.00,,,0.00,0,TxWx,2013-01-07 05:36:00,
2013-01-07 00:37:00,31.3,28.0,30.14,SSW,210,0.0,0.0,87,0.00,,,0.00,0,TxWx,2013-01-07 05:37:00,
2013-01-07 00:38:00,31.2,27.9,30.14,South,176,0.7,0.0,87,0.00,,,0.00,0,TxWx,2013-01-07 05:38:00,
2013-01-07 00:40:00,31.2,27.9,30.14,South,190,0.0,0.0,87,0.00,,,0.00,0,TxWx,2013-01-07 05:40:00,
2013-01-07 00:41:00,31.2,27.9,30.14,South,190,0.0,0.0,87,0.00,,,0.00,0,TxWx,2013-01-07 05:41:00,
2013-01-07 00:42:00,31.1,27.9,30.14,South,187,0.0,0.0,87,0.00,,,0.00,0,TxWx,2013-01-07 05:42:00,
2013-01-07 00:43:00,31.1,27.9,30.14,SSW,198,0.0,0.0,87,0.00,,,0.00,0,TxWx,2013-01-07 05:43:00,
2013-01-07 00:46:00,30.9,27.5,30.14,WSW,242,0.0,0.0,87,0.00,,,0.00,0,TxWx,2013-01-07 05:46:00,
2013-01-07 00:47:00,30.8,27.5,30.14,SSW,192,0.7,0.0,87,0.00,,,0.00,0,TxWx,2013-01-07 05:47:00,
2013-01-07 00:48:00,30.7,27.5,30.14,South,175,0.3,0.0,87,0.00,,,0.00,0,TxWx,2013-01-07 05:48:00,
2013-01-07 00:51:00,30.6,27.6,30.14,South,183,0.0,0.0,88,0.00,,,0.00,0,TxWx,2013-01-07 05:51:00,
2013-01-07 00:52:00,30.5,27.5,30.14,SSW,208,2.3,2.3,88,0.00,,,0.00,0,TxWx,2013-01-07 05:52:00,
2013-01-07 00:53:00,30.6,27.7,30.14,South,174,1.1,1.1,88,0.00,,,0.00,0,TxWx,2013-01-07 05:53:00,
2013-01-07 00:56:00,30.7,27.8,30.14,SSW,200,0.0,0.0,89,0.00,,,0.00,0,TxWx,2013-01-07 05:56:00,
2013-01-07 00:57:00,30.7,27.9,30.14,East,92,1.5,1.5,88,0.00,,,0.00,0,TxWx,2013-01-07 05:57:00,
2013-01-07 00:58:00,30.7,27.8,30.14,ENE,72,1.1,1.1,88,0.00,,,0.00,0,TxWx,2013-01-07 05:58:00,
2013-01-07 01:01:00,30.7,27.7,30.14,South,182,0.7,0.0,88,0.00,,,0.00,0,TxWx,2013-01-07 06:01:00,
2013-01-07 01:02:00,30.6,27.6,30.14,SSE,164,0.0,0.0,88,0.00,,,0.00,0,TxWx,2013-01-07 06:02:00,
2013-01-07 01:03:00,30.6,27.7,30.14,SSE,164,0.0,0.0,88,0.00,,,0.00,0,TxWx,2013-01-07 06:03:00,
2013-01-07 01:06:00,30.6,27.7,30.13,South,188,0.0,0.0,88,0.00,,,0.00,0,TxWx,2013-01-07 06:06:00,
2013-01-07 01:07:00,30.6,27.6,30.13,South,190,0.0,0.0,88,0.00,,,0.00,0,TxWx,2013-01-07 06:07:00,
2013-01-07 01:08:00,30.6,27.5,30.13,South,190,0.0,0.0,88,0.00,,,0.00,0,TxWx,2013-01-07 06:08:00,
2013-01-07 01:11:00,30.3,27.4,30.13,South,187,0.7,0.0,88,0.00,,,0.00,0,TxWx,2013-01-07 06:11:00,
2013-01-07 01:12:00,30.3,27.3,30.13,South,189,0.0,0.0,88,0.00,,,0.00,0,TxWx,2013-01-07 06:12:00,
2013-01-07 01:13:00,30.1,27.2,30.13,South,169,0.7,0.0,88,0.00,,,0.00,0,TxWx,2013-01-07 06:13:00,
2013-01-07 01:16:00,30.2,27.4,30.13,South,188,0.3,0.0,89,0.00,,,0.00,0,TxWx,2013-01-07 06:16:00,
2013-01-07 01:17:00,30.2,27.4,30.13,SSW,193,0.0,0.0,89,0.00,,,0.00,0,TxWx,2013-01-07 06:17:00,
2013-01-07 01:18:00,30.2,27.4,30.13,SSW,193,0.0,0.0,89,0.00,,,0.00,0,TxWx,2013-01-07 06:18:00,
2013-01-07 01:19:00,30.2,27.3,30.13,SSW,212,0.0,0.0,89,0.00,,,0.00,0,TxWx,2013-01-07 06:19:00,
2013-01-07 01:21:00,30.1,27.3,30.13,SSW,213,0.0,0.0,89,0.00,,,0.00,0,TxWx,2013-01-07 06:21:00,
2013-01-07 01:23:00,30.2,27.4,30.13,SSW,213,0.0,0.0,89,0.00,,,0.00,0,TxWx,2013-01-07 06:23:00,
2013-01-07 01:24:00,30.0,27.2,30.12,NNE,18,0.0,0.0,88,0.00,,,0.00,0,TxWx,2013-01-07 06:24:00,
2013-01-07 01:26:00,29.9,27.0,30.12,SSE,168,0.0,0.0,89,0.00,,,0.00,0,TxWx,2013-01-07 06:26:00,
2013-01-07 01:28:00,29.5,26.9,30.13,SSW,206,0.7,1.0,89,0.00,,,0.00,0,TxWx,2013-01-07 06:28:00,
2013-01-07 01:29:00,29.6,27.1,30.13,WNW,303,0.0,0.0,90,0.00,,,0.00,0,TxWx,2013-01-07 06:29:00,
2013-01-07 01:32:00,29.9,27.3,30.13,SSW,204,0.0,0.0,90,0.00,,,0.00,0,TxWx,2013-01-07 06:32:00,
2013-01-07 01:33:00,29.8,27.2,30.13,South,180,0.0,0.0,89,0.00,,,0.00,0,TxWx,2013-01-07 06:33:00,
2013-01-07 01:34:00,29.7,27.0,30.13,South,178,0.0,0.0,89,0.00,,,0.00,0,TxWx,2013-01-07 06:34:00,
2013-01-07 01:37:00,29.5,26.9,30.14,SSE,168,0.0,0.0,89,0.00,,,0.00,0,TxWx,2013-01-07 06:37:00,
2013-01-07 01:38:00,29.6,27.0,30.14,SSE,168,0.0,0.0,89,0.00,,,0.00,0,TxWx,2013-01-07 06:38:00,
2013-01-07 01:39:00,29.6,27.0,30.14,SSE,168,0.0,0.0,90,0.00,,,0.00,0,TxWx,2013-01-07 06:39:00,
2013-01-07 01:42:00,29.6,27.0,30.14,WSW,238,0.0,0.0,90,0.00,,,0.00,0,TxWx,2013-01-07 06:42:00,
2013-01-07 01:43:00,29.6,27.1,30.14,South,172,0.0,0.0,90,0.00,,,0.00,0,TxWx,2013-01-07 06:43:00,
2013-01-07 01:44:00,29.7,27.2,30.14,ESE,107,1.1,1.1,90,0.00,,,0.00,0,TxWx,2013-01-07 06:44:00,
2013-01-07 01:47:00,29.7,27.2,30.14,SE,132,0.0,0.0,90,0.00,,,0.00,0,TxWx,2013-01-07 06:47:00,
2013-01-07 01:48:00,29.6,27.1,30.14,ESE,119,1.5,1.5,90,0.00,,,0.00,0,TxWx,2013-01-07 06:48:00,
2013-01-07 01:49:00,29.7,27.3,30.14,SSE,153,0.7,0.0,90,0.00,,,0.00,0,TxWx,2013-01-07 06:49:00,
2013-01-07 01:52:00,29.9,27.5,30.14,SSW,196,0.0,0.0,90,0.00,,,0.00,0,TxWx,2013-01-07 06:52:00,
2013-01-07 01:53:00,29.9,27.5,30.14,SSE,151,0.0,0.0,90,0.00,,,0.00,0,TxWx,2013-01-07 06:53:00,
2013-01-07 01:54:00,29.9,27.4,30.14,SSE,154,1.1,1.1,90,0.00,,,0.00,0,TxWx,2013-01-07 06:54:00,
2013-01-07 01:57:00,29.9,27.4,30.14,WSW,242,0.0,0.0,90,0.00,,,0.00,0,TxWx,2013-01-07 06:57:00,
2013-01-07 01:58:00,29.9,27.3,30.14,SSW,199,0.7,1.0,90,0.00,,,0.00,0,TxWx,2013-01-07 06:58:00,
2013-01-07 01:59:00,29.8,27.2,30.14,SW,224,0.7,0.0,90,0.00,,,0.00,0,TxWx,2013-01-07 06:59:00,
2013-01-07 02:00:00,29.8,27.2,30.14,SW,221,0.0,0.0,90,0.00,,,0.00,0,TxWx,2013-01-07 07:00:00,
2013-01-07 02:03:00,29.6,27.1,30.15,SW,232,0.3,0.0,90,0.00,,,0.00,0,TxWx,2013-01-07 07:03:00,
2013-01-07 02:04:00,29.5,27.0,30.15,SSW,196,0.0,0.0,90,0.00,,,0.00,0,TxWx,2013-01-07 07:04:00,
2013-01-07 02:05:00,29.4,26.9,30.15,SW,214,0.7,0.0,90,0.00,,,0.00,0,TxWx,2013-01-07 07:05:00,
2013-01-07 02:08:00,29.4,27.0,30.15,WSW,254,0.0,0.0,90,0.00,,,0.00,0,TxWx,2013-01-07 07:08:00,
2013-01-07 02:09:00,29.4,27.0,30.15,WSW,238,0.0,0.0,90,0.00,,,0.00,0,TxWx,2013-01-07 07:09:00,
2013-01-07 02:10:00,29.4,27.1,30.15,SW,227,0.0,0.0,90,0.00,,,0.00,0,TxWx,2013-01-07 07:10:00,
2013-01-07 02:13:00,29.3,26.9,30.15,SSW,203,1.1,1.1,90,0.00,,,0.00,0,TxWx,2013-01-07 07:13:00,
2013-01-07 02:14:00,29.3,26.9,30.15,South,169,1.5,1.5,90,0.00,,,0.00,0,TxWx,2013-01-07 07:14:00,
2013-01-07 02:15:00,29.2,26.9,30.15,WSW,247,1.1,1.1,90,0.00,,,0.00,0,TxWx,2013-01-07 07:15:00,
2013-01-07 02:18:00,29.4,27.0,30.15,WSW,238,0.0,0.0,90,0.00,,,0.00,0,TxWx,2013-01-07 07:18:00,
2013-01-07 02:19:00,29.4,27.0,30.15,WSW,239,0.0,0.0,90,0.00,,,0.00,0,TxWx,2013-01-07 07:19:00,
2013-01-07 02:20:00,29.4,27.0,30.15,South,182,0.7,1.0,90,0.00,,,0.00,0,TxWx,2013-01-07 07:20:00,
2013-01-07 02:23:00,29.2,26.7,30.15,SSW,205,1.5,1.5,90,0.00,,,0.00,0,TxWx,2013-01-07 07:23:00,
2013-01-07 02:24:00,29.2,26.7,30.15,SSW,205,1.5,1.5,90,0.00,,,0.00,0,TxWx,2013-01-07 07:24:00,
2013-01-07 02:25:00,29.3,26.8,30.15,SW,219,1.9,1.9,90,0.00,,,0.00,0,TxWx,2013-01-07 07:25:00,
2013-01-07 02:28:00,29.2,26.7,30.15,SSW,206,3.0,3.0,90,0.00,,,0.00,0,TxWx,2013-01-07 07:28:00,
2013-01-07 02:29:00,29.2,26.6,30.15,South,181,0.3,0.0,89,0.00,,,0.00,0,TxWx,2013-01-07 07:29:00,
2013-01-07 02:30:00,29.2,26.5,30.15,SSW,204,1.5,1.5,89,0.00,,,0.00,0,TxWx,2013-01-07 07:30:00,
2013-01-07 02:33:00,29.3,26.3,30.15,SW,224,0.0,0.0,88,0.00,,,0.00,0,TxWx,2013-01-07 07:33:00,
2013-01-07 02:34:00,29.2,26.3,30.15,South,179,0.0,0.0,88,0.00,,,0.00,0,TxWx,2013-01-07 07:34:00,
2013-01-07 02:35:00,29.2,26.3,30.15,SSW,203,1.9,2.0,88,0.00,,,0.00,0,TxWx,2013-01-07 07:35:00,
2013-01-07 02:39:00,29.1,26.1,30.15,WNW,302,0.0,0.0,88,0.00,,,0.00,0,TxWx,2013-01-07 07:39:00,
2013-01-07 02:40:00,29.1,26.1,30.15,South,183,0.0,0.0,88,0.00,,,0.00,0,TxWx,2013-01-07 07:40:00,
2013-01-07 02:41:00,29.0,26.0,30.15,SSW,193,0.0,0.0,88,0.00,,,0.00,0,TxWx,2013-01-07 07:41:00,
2013-01-07 02:44:00,28.9,26.0,30.15,West,277,0.3,0.0,88,0.00,,,0.00,0,TxWx,2013-01-07 07:44:00,
2013-01-07 02:45:00,29.0,26.1,30.15,West,275,0.0,0.0,88,0.00,,,0.00,0,TxWx,2013-01-07 07:45:00,
2013-01-07 02:46:00,29.0,26.1,30.15,WSW,252,0.0,0.0,88,0.00,,,0.00,0,TxWx,2013-01-07 07:46:00,
2013-01-07 02:49:00,29.0,26.1,30.16,East,87,1.1,1.1,88,0.00,,,0.00,0,TxWx,2013-01-07 07:49:00,
2013-01-07 02:50:00,29.0,26.1,30.16,SSW,210,0.3,0.0,88,0.00,,,0.00,0,TxWx,2013-01-07 07:50:00,
2013-01-07 02:51:00,29.0,26.1,30.16,SSW,196,0.0,0.0,88,0.00,,,0.00,0,TxWx,2013-01-07 07:51:00,
2013-01-07 02:54:00,29.0,26.1,30.16,South,179,0.3,0.0,88,0.00,,,0.00,0,TxWx,2013-01-07 07:54:00,
2013-01-07 02:56:00,29.0,26.1,30.16,WNW,293,0.0,0.0,88,0.00,,,0.00,0,TxWx,2013-01-07 07:56:00,
2013-01-07 02:59:00,29.0,26.1,30.16,South,180,1.1,1.1,88,0.00,,,0.00,0,TxWx,2013-01-07 07:59:00,
2013-01-07 03:01:00,29.0,26.0,30.16,SW,216,2.3,2.3,88,0.00,,,0.00,0,TxWx,2013-01-07 08:01:00,
2013-01-07 03:02:00,28.9,25.9,30.16,SW,233,0.3,0.0,88,0.00,,,0.00,0,TxWx,2013-01-07 08:02:00,
2013-01-07 03:05:00,28.9,26.0,30.16,WSW,251,0.0,0.0,88,0.00,,,0.00,0,TxWx,2013-01-07 08:05:00,
2013-01-07 03:06:00,28.9,25.9,30.16,WNW,303,0.0,0.0,88,0.00,,,0.00,0,TxWx,2013-01-07 08:06:00,
2013-01-07 03:07:00,28.9,25.9,30.16,WNW,303,0.0,0.0,88,0.00,,,0.00,0,TxWx,2013-01-07 08:07:00,
2013-01-07 03:10:00,28.7,25.8,30.16,SSE,156,0.0,0.0,88,0.00,,,0.00,0,TxWx,2013-01-07 08:10:00,
2013-01-07 03:12:00,28.5,25.7,30.16,SSW,206,0.3,0.0,89,0.00,,,0.00,0,TxWx,2013-01-07 08:12:00,
2013-01-07 03:15:00,28.4,25.7,30.16,SSW,210,0.7,1.0,89,0.00,,,0.00,0,TxWx,2013-01-07 08:15:00,
2013-01-07 03:17:00,28.5,25.8,30.16,SW,217,1.9,2.0,89,0.00,,,0.00,0,TxWx,2013-01-07 08:17:00,
2013-01-07 03:20:00,28.4,25.7,30.16,SSW,201,1.1,1.1,89,0.00,,,0.00,0,TxWx,2013-01-07 08:20:00,
2013-01-07 03:21:00,28.4,25.7,30.16,SW,220,1.5,1.5,89,0.00,,,0.00,0,TxWx,2013-01-07 08:21:00,
2013-01-07 03:22:00,28.4,25.6,30.16,SSW,213,3.4,3.4,89,0.00,,,0.00,0,TxWx,2013-01-07 08:22:00,
2013-01-07 03:25:00,28.5,25.6,30.16,South,181,2.3,2.3,88,0.00,,,0.00,0,TxWx,2013-01-07 08:25:00,
2013-01-07 03:26:00,28.5,25.6,30.16,South,179,1.9,2.0,88,0.00,,,0.00,0,TxWx,2013-01-07 08:26:00,
2013-01-07 03:27:00,28.5,25.6,30.16,SSW,203,0.3,0.0,88,0.00,,,0.00,0,TxWx,2013-01-07 08:27:00,
2013-01-07 03:30:00,28.4,25.5,30.16,SW,230,2.3,2.3,88,0.00,,,0.00,0,TxWx,2013-01-07 08:30:00,
2013-01-07 03:31:00,28.5,25.5,30.16,SW,235,1.9,1.9,88,0.00,,,0.00,0,TxWx,2013-01-07 08:31:00,
2013-01-07 03:32:00,28.4,25.4,30.16,SSE,158,2.3,2.3,88,0.00,,,0.00,0,TxWx,2013-01-07 08:32:00,
2013-01-07 03:33:00,28.4,25.4,30.16,South,191,0.7,1.0,88,0.00,,,0.00,0,TxWx,2013-01-07 08:33:00,
2013-01-07 03:35:00,28.3,25.4,30.16,SW,230,1.1,1.1,88,0.00,,,0.00,0,TxWx,2013-01-07 08:35:00,
2013-01-07 03:36:00,28.3,25.4,30.16,South,184,0.7,0.0,88,0.00,,,0.00,0,TxWx,2013-01-07 08:36:00,
2013-01-07 03:37:00,28.3,25.4,30.16,SSW,194,1.1,1.1,88,0.00,,,0.00,0,TxWx,2013-01-07 08:37:00,
2013-01-07 03:38:00,28.3,25.5,30.16,South,182,0.7,0.0,89,0.00,,,0.00,0,TxWx,2013-01-07 08:38:00,
2013-01-07 03:40:00,28.3,25.5,30.16,South,187,0.3,0.0,89,0.00,,,0.00,0,TxWx,2013-01-07 08:40:00,
2013-01-07 03:42:00,28.2,25.5,30.16,South,188,0.0,0.0,89,0.00,,,0.00,0,TxWx,2013-01-07 08:42:00,
2013-01-07 03:43:00,28.2,25.6,30.16,South,188,0.0,0.0,89,0.00,,,0.00,0,TxWx,2013-01-07 08:43:00,
2013-01-07 03:45:00,28.2,25.6,30.16,SSE,165,0.7,1.0,90,0.00,,,0.00,0,TxWx,2013-01-07 08:45:00,
2013-01-07 03:47:00,28.2,25.7,30.17,SSE,163,0.7,0.0,90,0.00,,,0.00,0,TxWx,2013-01-07 08:47:00,
2013-01-07 03:48:00,28.3,25.7,30.17,SSE,164,0.3,0.0,89,0.00,,,0.00,0,TxWx,2013-01-07 08:48:00,
2013-01-07 03:50:00,28.3,25.7,30.17,South,180,1.1,1.1,89,0.00,,,0.00,0,TxWx,2013-01-07 08:50:00,
2013-01-07 03:52:00,28.3,25.5,30.17,SW,227,1.1,1.1,89,0.00,,,0.00,0,TxWx,2013-01-07 08:52:00,
2013-01-07 03:53:00,28.3,25.5,30.17,SSW,208,0.3,0.0,88,0.00,,,0.00,0,TxWx,2013-01-07 08:53:00,
2013-01-07 03:56:00,28.3,25.3,30.17,SSW,195,1.5,1.5,88,0.00,,,0.00,0,TxWx,2013-01-07 08:56:00,
2013-01-07 03:57:00,28.2,25.3,30.17,SSW,208,1.1,1.1,88,0.00,,,0.00,0,TxWx,2013-01-07 08:57:00,
2013-01-07 03:58:00,28.3,25.3,30.17,SSW,205,0.0,0.0,88,0.00,,,0.00,0,TxWx,2013-01-07 08:58:00,
2013-01-07 04:01:00,28.2,25.2,30.17,NW,319,0.0,0.0,88,0.00,,,0.00,0,TxWx,2013-01-07 09:01:00,
2013-01-07 04:02:00,28.1,25.2,30.17,NW,319,0.0,0.0,88,0.00,,,0.00,0,TxWx,2013-01-07 09:02:00,
2013-01-07 04:03:00,28.1,25.2,30.17,NW,319,0.0,0.0,88,0.00,,,0.00,0,TxWx,2013-01-07 09:03:00,
2013-01-07 04:06:00,28.0,25.1,30.17,NW,319,0.0,0.0,88,0.00,,,0.00,0,TxWx,2013-01-07 09:06:00,
2013-01-07 04:07:00,27.9,25.0,30.17,WNW,301,0.0,0.0,88,0.00,,,0.00,0,TxWx,2013-01-07 09:07:00,
2013-01-07 04:08:00,27.9,25.0,30.17,WNW,301,0.0,0.0,88,0.00,,,0.00,0,TxWx,2013-01-07 09:08:00,
2013-01-07 04:11:00,27.8,25.1,30.17,West,275,0.0,0.0,89,0.00,,,0.00,0,TxWx,2013-01-07 09:11:00,
2013-01-07 04:12:00,27.6,24.8,30.17,WNW,287,0.0,0.0,89,0.00,,,0.00,0,TxWx,2013-01-07 09:12:00,
2013-01-07 04:13:00,27.5,24.7,30.17,WNW,283,0.0,0.0,89,0.00,,,0.00,0,TxWx,2013-01-07 09:13:00,
2013-01-07 04:14:00,27.5,24.8,30.17,WNW,283,0.0,0.0,89,0.00,,,0.00,0,TxWx,2013-01-07 09:14:00,
2013-01-07 04:16:00,27.3,24.7,30.17,SW,221,0.0,0.0,89,0.00,,,0.00,0,TxWx,2013-01-07 09:16:00,
2013-01-07 04:17:00,27.3,24.7,30.17,WSW,244,0.0,0.0,89,0.00,,,0.00,0,TxWx,2013-01-07 09:17:00,
2013-01-07 04:18:00,27.3,24.7,30.17,West,261,0.0,0.0,89,0.00,,,0.00,0,TxWx,2013-01-07 09:18:00,
2013-01-07 04:19:00,27.3,24.8,30.17,West,260,0.0,0.0,90,0.00,,,0.00,0,TxWx,2013-01-07 09:19:00,
2013-01-07 04:21:00,27.2,24.8,30.17,West,271,0.0,0.0,90,0.00,,,0.00,0,TxWx,2013-01-07 09:21:00,
2013-01-07 04:23:00,27.1,24.6,30.17,WSW,251,0.0,0.0,90,0.00,,,0.00,0,TxWx,2013-01-07 09:23:00,
2013-01-07 04:24:00,27.1,24.7,30.17,WNW,292,0.0,0.0,90,0.00,,,0.00,0,TxWx,2013-01-07 09:24:00,
2013-01-07 04:27:00,27.0,24.6,30.17,West,271,0.0,0.0,90,0.00,,,0.00,0,TxWx,2013-01-07 09:27:00,
2013-01-07 04:28:00,27.0,24.7,30.17,East,82,0.0,0.0,90,0.00,,,0.00,0,TxWx,2013-01-07 09:28:00,
2013-01-07 04:29:00,27.0,24.8,30.17,SE,138,0.0,0.0,90,0.00,,,0.00,0,TxWx,2013-01-07 09:29:00,
2013-01-07 04:32:00,27.1,24.9,30.18,SE,144,0.0,0.0,91,0.00,,,0.00,0,TxWx,2013-01-07 09:32:00,
2013-01-07 04:33:00,27.1,24.9,30.18,SE,144,0.0,0.0,91,0.00,,,0.00,0,TxWx,2013-01-07 09:33:00,
2013-01-07 04:34:00,27.0,24.8,30.18,SSE,150,0.0,0.0,91,0.00,,,0.00,0,TxWx,2013-01-07 09:34:00,
2013-01-07 04:37:00,27.0,24.9,30.18,South,172,0.0,0.0,91,0.00,,,0.00,0,TxWx,2013-01-07 09:37:00,
2013-01-07 04:38:00,27.0,24.9,30.18,South,172,0.0,0.0,91,0.00,,,0.00,0,TxWx,2013-01-07 09:38:00,
2013-01-07 04:39:00,27.0,24.9,30.18,South,172,0.0,0.0,91,0.00,,,0.00,0,TxWx,2013-01-07 09:39:00,
2013-01-07 04:42:00,27.0,24.9,30.18,South,172,0.0,0.0,91,0.00,,,0.00,0,TxWx,2013-01-07 09:42:00,
2013-01-07 04:43:00,27.1,25.0,30.18,South,172,0.0,0.0,91,0.00,,,0.00,0,TxWx,2013-01-07 09:43:00,
2013-01-07 04:44:00,27.0,24.9,30.18,South,181,0.0,0.0,91,0.00,,,0.00,0,TxWx,2013-01-07 09:44:00,
2013-01-07 04:45:00,27.0,24.9,30.18,South,181,0.0,0.0,91,0.00,,,0.00,0,TxWx,2013-01-07 09:45:00,
2013-01-07 04:47:00,27.0,24.9,30.18,South,181,0.0,0.0,91,0.00,,,0.00,0,TxWx,2013-01-07 09:47:00,
2013-01-07 04:48:00,27.0,24.9,30.18,South,181,0.0,0.0,91,0.00,,,0.00,0,TxWx,2013-01-07 09:48:00,
2013-01-07 04:49:00,27.1,25.0,30.18,South,181,0.0,0.0,91,0.00,,,0.00,0,TxWx,2013-01-07 09:49:00,
2013-01-07 04:50:00,27.1,25.0,30.18,South,181,0.0,0.0,91,0.00,,,0.00,0,TxWx,2013-01-07 09:50:00,
2013-01-07 04:52:00,26.9,24.8,30.18,NNW,339,0.0,0.0,91,0.00,,,0.00,0,TxWx,2013-01-07 09:52:00,
2013-01-07 04:53:00,27.0,24.9,30.18,NNW,339,0.0,0.0,91,0.00,,,0.00,0,TxWx,2013-01-07 09:53:00,
2013-01-07 04:55:00,27.0,24.9,30.18,NNW,339,0.0,0.0,91,0.00,,,0.00,0,TxWx,2013-01-07 09:55:00,
2013-01-07 04:57:00,27.1,24.9,30.18,NE,53,0.0,0.0,91,0.00,,,0.00,0,TxWx,2013-01-07 09:57:00,
2013-01-07 04:59:00,27.1,24.9,30.18,NE,39,0.0,0.0,91,0.00,,,0.00,0,TxWx,2013-01-07 09:59:00,
2013-01-07 05:00:00,27.1,24.9,30.19,East,97,0.0,0.0,91,0.00,,,0.00,0,TxWx,2013-01-07 10:00:00,
2013-01-07 05:02:00,26.9,24.8,30.19,South,180,0.0,0.0,91,0.00,,,0.00,0,TxWx,2013-01-07 10:02:00,
2013-01-07 05:04:00,26.9,24.8,30.19,South,180,0.0,0.0,91,0.00,,,0.00,0,TxWx,2013-01-07 10:04:00,
2013-01-07 05:05:00,26.9,24.8,30.19,South,180,0.0,0.0,91,0.00,,,0.00,0,TxWx,2013-01-07 10:05:00,
2013-01-07 05:08:00,26.9,24.8,30.19,South,181,0.0,0.0,91,0.00,,,0.00,0,TxWx,2013-01-07 10:08:00,
2013-01-07 05:09:00,26.9,24.8,30.19,South,181,0.0,0.0,91,0.00,,,0.00,0,TxWx,2013-01-07 10:09:00,
2013-01-07 05:10:00,26.8,24.7,30.19,South,180,0.0,0.0,91,0.00,,,0.00,0,TxWx,2013-01-07 10:10:00,
2013-01-07 05:13:00,26.7,24.6,30.19,South,180,0.0,0.0,91,0.00,,,0.00,0,TxWx,2013-01-07 10:13:00,
2013-01-07 05:14:00,26.7,24.6,30.19,South,180,0.0,0.0,91,0.00,,,0.00,0,TxWx,2013-01-07 10:14:00,
2013-01-07 05:15:00,26.6,24.6,30.19,South,180,0.0,0.0,92,0.00,,,0.00,0,TxWx,2013-01-07 10:15:00,
2013-01-07 05:18:00,26.4,24.5,30.19,South,180,0.0,0.0,92,0.00,,,0.00,0,TxWx,2013-01-07 10:18:00,
2013-01-07 05:19:00,26.4,24.5,30.19,South,180,0.0,0.0,92,0.00,,,0.00,0,TxWx,2013-01-07 10:19:00,
2013-01-07 05:20:00,26.4,24.5,30.19,South,180,0.0,0.0,92,0.00,,,0.00,0,TxWx,2013-01-07 10:20:00,
2013-01-07 05:23:00,26.4,24.5,30.19,South,181,0.0,0.0,92,0.00,,,0.00,0,TxWx,2013-01-07 10:23:00,
2013-01-07 05:24:00,26.4,24.5,30.19,SSW,210,0.0,0.0,92,0.00,,,0.00,0,TxWx,2013-01-07 10:24:00,
2013-01-07 05:25:00,26.3,24.5,30.20,SW,226,0.0,0.0,92,0.00,,,0.00,0,TxWx,2013-01-07 10:25:00,
2013-01-07 05:28:00,26.2,24.4,30.20,SW,226,0.0,0.0,92,0.00,,,0.00,0,TxWx,2013-01-07 10:28:00,
2013-01-07 05:30:00,26.2,24.3,30.20,SW,226,0.0,0.0,92,0.00,,,0.00,0,TxWx,2013-01-07 10:30:00,
2013-01-07 05:31:00,26.2,24.3,30.20,SW,226,0.0,0.0,92,0.00,,,0.00,0,TxWx,2013-01-07 10:31:00,
2013-01-07 05:33:00,26.1,24.2,30.20,SSW,208,0.0,0.0,92,0.00,,,0.00,0,TxWx,2013-01-07 10:33:00,
2013-01-07 05:36:00,26.0,24.2,30.20,SSW,205,0.0,0.0,92,0.00,,,0.00,0,TxWx,2013-01-07 10:36:00,
2013-01-07 05:38:00,26.0,24.2,30.20,SSW,210,0.0,0.0,92,0.00,,,0.00,0,TxWx,2013-01-07 10:38:00,
2013-01-07 05:41:00,26.0,24.2,30.20,SSW,211,0.0,0.0,92,0.00,,,0.00,0,TxWx,2013-01-07 10:41:00,
2013-01-07 05:43:00,25.9,24.1,30.20,SSW,212,0.0,0.0,92,0.00,,,0.00,0,TxWx,2013-01-07 10:43:00,
2013-01-07 05:46:00,25.8,24.0,30.20,South,190,0.0,0.0,92,0.00,,,0.00,0,TxWx,2013-01-07 10:46:00,
2013-01-07 05:48:00,25.9,23.9,30.20,South,180,0.3,0.0,92,0.00,,,0.00,0,TxWx,2013-01-07 10:48:00,
2013-01-07 05:51:00,26.0,24.1,30.20,SW,216,0.7,1.0,92,0.00,,,0.00,0,TxWx,2013-01-07 10:51:00,
2013-01-07 05:53:00,25.9,23.9,30.21,SSW,208,0.7,0.0,92,0.00,,,0.00,0,TxWx,2013-01-07 10:53:00,
2013-01-07 05:56:00,25.8,23.6,30.20,SSW,198,0.0,0.0,91,0.00,,,0.00,0,TxWx,2013-01-07 10:56:00,
2013-01-07 05:57:00,25.8,23.6,30.20,SSW,198,0.0,0.0,91,0.00,,,0.00,0,TxWx,2013-01-07 10:57:00,
2013-01-07 05:59:00,25.8,23.6,30.20,WSW,244,0.0,0.0,91,0.00,,,0.00,0,TxWx,2013-01-07 10:59:00,
2013-01-07 06:01:00,25.6,23.5,30.20,SW,228,0.7,0.0,91,0.00,,,0.00,0,TxWx,2013-01-07 11:01:00,
2013-01-07 06:02:00,25.6,23.5,30.20,SSW,213,1.1,1.1,91,0.00,,,0.00,0,TxWx,2013-01-07 11:02:00,
2013-01-07 06:04:00,25.5,23.5,30.20,SW,227,0.7,0.0,92,0.00,,,0.00,0,TxWx,2013-01-07 11:04:00,
2013-01-07 06:06:00,25.6,23.6,30.21,WSW,244,0.0,0.0,92,0.00,,,0.00,0,TxWx,2013-01-07 11:06:00,
2013-01-07 06:07:00,25.5,23.5,30.21,WSW,244,0.0,0.0,92,0.00,,,0.00,0,TxWx,2013-01-07 11:07:00,
2013-01-07 06:09:00,25.5,23.4,30.21,SW,219,0.7,0.0,91,0.00,,,0.00,0,TxWx,2013-01-07 11:09:00,
2013-01-07 06:11:00,25.4,23.4,30.20,SW,222,1.5,1.5,91,0.00,,,0.00,0,TxWx,2013-01-07 11:11:00,
2013-01-07 06:12:00,25.4,23.4,30.20,WSW,257,0.0,0.0,92,0.00,,,0.00,0,TxWx,2013-01-07 11:12:00,
2013-01-07 06:14:00,25.4,23.4,30.20,WSW,256,0.0,0.0,92,0.00,,,0.00,0,TxWx,2013-01-07 11:14:00,
2013-01-07 06:16:00,25.4,23.5,30.20,WSW,255,0.0,0.0,92,0.00,,,0.00,0,TxWx,2013-01-07 11:16:00,
2013-01-07 06:18:00,25.3,23.4,30.21,WSW,253,0.0,0.0,92,0.00,,,0.00,0,TxWx,2013-01-07 11:18:00,
2013-01-07 06:19:00,25.3,23.4,30.21,South,183,0.0,0.0,92,0.00,,,0.00,0,TxWx,2013-01-07 11:19:00,
2013-01-07 06:21:00,25.4,23.6,30.21,South,183,0.0,0.0,92,0.00,,,0.00,0,TxWx,2013-01-07 11:21:00,
2013-01-07 06:23:00,25.4,23.6,30.21,South,183,0.0,0.0,92,0.00,,,0.00,0,TxWx,2013-01-07 11:23:00,
2013-01-07 06:25:00,25.4,23.6,30.21,South,183,0.0,0.0,92,0.00,,,0.00,0,TxWx,2013-01-07 11:25:00,
2013-01-07 06:26:00,25.5,23.7,30.21,South,183,0.0,0.0,92,0.00,,,0.00,0,TxWx,2013-01-07 11:26:00,
2013-01-07 06:27:00,25.5,23.8,30.21,South,183,0.0,0.0,93,0.00,,,0.00,0,TxWx,2013-01-07 11:27:00,
2013-01-07 06:28:00,25.5,23.9,30.21,South,183,0.0,0.0,93,0.00,,,0.00,0,TxWx,2013-01-07 11:28:00,
2013-01-07 06:30:00,25.4,23.8,30.21,SW,218,0.0,0.0,93,0.00,,,0.00,0,TxWx,2013-01-07 11:30:00,
2013-01-07 06:32:00,25.4,23.8,30.21,SW,218,0.0,0.0,93,0.00,,,0.00,0,TxWx,2013-01-07 11:32:00,
2013-01-07 06:33:00,25.4,23.8,30.21,South,189,0.0,0.0,93,0.00,,,0.00,0,TxWx,2013-01-07 11:33:00,
2013-01-07 06:35:00,25.4,24.0,30.22,South,189,0.0,0.0,94,0.00,,,0.00,0,TxWx,2013-01-07 11:35:00,
2013-01-07 06:37:00,25.4,24.0,30.22,SW,229,0.0,0.0,94,0.00,,,0.00,0,TxWx,2013-01-07 11:37:00,
2013-01-07 06:38:00,25.4,24.0,30.22,SSW,212,0.0,0.0,94,0.00,,,0.00,0,TxWx,2013-01-07 11:38:00,
2013-01-07 06:40:00,25.3,23.8,30.22,SSW,208,0.0,0.0,94,0.00,,,0.00,0,TxWx,2013-01-07 11:40:00,
2013-01-07 06:42:00,25.3,23.9,30.22,SSW,199,0.0,0.0,94,0.00,,,0.00,0,TxWx,2013-01-07 11:42:00,
2013-01-07 06:44:00,25.3,23.9,30.22,SSW,199,0.0,0.0,94,0.00,,,0.00,0,TxWx,2013-01-07 11:44:00,
2013-01-07 06:45:00,25.3,23.9,30.22,SSW,199,0.0,0.0,94,0.00,,,0.00,0,TxWx,2013-01-07 11:45:00,
2013-01-07 06:47:00,25.3,23.8,30.22,SW,232,0.0,0.0,94,0.00,,,0.00,0,TxWx,2013-01-07 11:47:00,
2013-01-07 06:49:00,25.2,23.8,30.22,SW,233,0.0,0.0,94,0.00,,,0.00,0,TxWx,2013-01-07 11:49:00,
2013-01-07 06:50:00,25.2,23.7,30.22,SSW,210,0.0,0.0,94,0.00,,,0.00,0,TxWx,2013-01-07 11:50:00,
2013-01-07 06:52:00,25.2,23.7,30.22,SW,230,0.0,0.0,93,0.00,,,0.00,0,TxWx,2013-01-07 11:52:00,
2013-01-07 06:53:00,25.2,23.6,30.22,SW,231,0.0,0.0,93,0.00,,,0.00,0,TxWx,2013-01-07 11:53:00,
2013-01-07 06:55:00,25.2,23.6,30.22,SW,231,0.0,0.0,93,0.00,,,0.00,0,TxWx,2013-01-07 11:55:00,
2013-01-07 06:58:00,25.1,23.4,30.23,SW,231,0.0,0.0,93,0.00,,,0.00,0,TxWx,2013-01-07 11:58:00,
2013-01-07 06:59:00,25.0,23.4,30.23,SSW,206,0.7,0.0,93,0.00,,,0.00,0,TxWx,2013-01-07 11:59:00,
2013-01-07 07:01:00,25.0,23.4,30.23,SSW,205,0.0,0.0,93,0.00,,,0.00,0,TxWx,2013-01-07 12:01:00,
2013-01-07 07:03:00,25.1,23.6,30.23,SSW,193,0.0,0.0,94,0.00,,,0.00,0,TxWx,2013-01-07 12:03:00,
2013-01-07 07:04:00,25.1,23.7,30.23,SSW,193,0.0,0.0,94,0.00,,,0.00,0,TxWx,2013-01-07 12:04:00,
2013-01-07 07:06:00,25.3,24.0,30.23,SSW,212,0.0,0.0,94,0.00,,,0.00,0,TxWx,2013-01-07 12:06:00,
2013-01-07 07:08:00,25.3,23.9,30.23,SW,214,0.0,0.0,94,0.00,,,0.00,0,TxWx,2013-01-07 12:08:00,
2013-01-07 07:09:00,25.3,23.9,30.23,SSW,193,0.0,0.0,94,0.00,,,0.00,0,TxWx,2013-01-07 12:09:00,
2013-01-07 07:11:00,25.3,23.9,30.23,SSW,193,0.0,0.0,94,0.00,,,0.00,0,TxWx,2013-01-07 12:11:00,
2013-01-07 07:13:00,25.4,23.9,30.23,SSW,193,0.0,0.0,94,0.00,,,0.00,0,TxWx,2013-01-07 12:13:00,
2013-01-07 07:14:00,25.4,23.9,30.23,SW,218,0.0,0.0,94,0.00,,,0.00,0,TxWx,2013-01-07 12:14:00,
2013-01-07 07:16:00,25.3,23.7,30.23,SSW,212,0.0,0.0,93,0.00,,,0.00,0,TxWx,2013-01-07 12:16:00,
2013-01-07 07:18:00,25.2,23.7,30.23,SSW,212,0.0,0.0,93,0.00,,,0.00,0,TxWx,2013-01-07 12:18:00,
2013-01-07 07:20:00,25.3,23.8,30.23,SSW,212,0.0,0.0,93,0.00,,,0.00,0,TxWx,2013-01-07 12:20:00,
2013-01-07 07:21:00,25.3,23.8,30.23,SSW,195,0.0,0.0,94,0.00,,,0.00,0,TxWx,2013-01-07 12:21:00,
2013-01-07 07:23:00,25.4,23.9,30.23,SSW,195,0.0,0.0,93,0.00,,,0.00,0,TxWx,2013-01-07 12:23:00,
2013-01-07 07:24:00,25.4,23.9,30.23,SSW,194,0.0,0.0,93,0.00,,,0.00,0,TxWx,2013-01-07 12:24:00,
2013-01-07 07:26:00,25.4,23.8,30.23,SSW,195,0.0,0.0,93,0.00,,,0.00,0,TxWx,2013-01-07 12:26:00,
2013-01-07 07:29:00,25.4,23.7,30.23,SSW,195,0.0,0.0,93,0.00,,,0.00,0,TxWx,2013-01-07 12:29:00,
2013-01-07 07:31:00,25.4,23.7,30.23,SSE,168,0.0,0.0,93,0.00,,,0.00,0,TxWx,2013-01-07 12:31:00,
2013-01-07 07:34:00,25.5,23.8,30.23,SSE,168,0.0,0.0,93,0.00,,,0.00,0,TxWx,2013-01-07 12:34:00,
2013-01-07 07:35:00,25.5,23.8,30.23,SSE,168,0.0,0.0,93,0.00,,,0.00,0,TxWx,2013-01-07 12:35:00,
2013-01-07 07:36:00,25.5,23.8,30.23,SSE,168,0.0,0.0,93,0.00,,,0.00,0,TxWx,2013-01-07 12:36:00,
2013-01-07 07:39:00,25.5,23.9,30.24,SSW,202,0.0,0.0,93,0.00,,,0.00,0,TxWx,2013-01-07 12:39:00,
2013-01-07 07:42:00,25.4,23.8,30.24,SSW,202,0.0,0.0,93,0.00,,,0.00,0,TxWx,2013-01-07 12:42:00,
2013-01-07 07:44:00,25.4,23.8,30.24,SSW,202,0.0,0.0,93,0.00,,,0.00,1,TxWx,2013-01-07 12:44:00,
2013-01-07 07:45:00,25.4,23.8,30.24,SSW,202,0.0,0.0,93,0.00,,,0.00,1,TxWx,2013-01-07 12:45:00,
2013-01-07 07:47:00,25.3,23.8,30.24,SSW,202,0.0,0.0,93,0.00,,,0.00,1,TxWx,2013-01-07 12:47:00,
2013-01-07 07:49:00,25.1,23.6,30.24,SSW,202,0.0,0.0,93,0.00,,,0.00,1,TxWx,2013-01-07 12:49:00,
2013-01-07 07:50:00,25.1,23.5,30.24,SSW,202,0.0,0.0,93,0.00,,,0.00,1,TxWx,2013-01-07 12:50:00,
2013-01-07 07:52:00,25.0,23.5,30.24,SSW,202,0.0,0.0,94,0.00,,,0.00,1,TxWx,2013-01-07 12:52:00,
2013-01-07 07:54:00,24.9,23.5,30.24,SSW,202,0.0,0.0,94,0.00,,,0.00,1,TxWx,2013-01-07 12:54:00,
2013-01-07 07:55:00,24.9,23.4,30.24,SSW,202,0.0,0.0,94,0.00,,,0.00,1,TxWx,2013-01-07 12:55:00,
2013-01-07 07:57:00,24.9,23.4,30.24,SSW,202,0.0,0.0,93,0.00,,,0.00,1,TxWx,2013-01-07 12:57:00,
2013-01-07 07:59:00,24.9,23.4,30.24,SSW,202,0.0,0.0,93,0.00,,,0.00,1,TxWx,2013-01-07 12:59:00,
2013-01-07 08:00:00,24.9,23.4,30.24,SSW,202,0.0,0.0,93,0.00,,,0.00,1,TxWx,2013-01-07 13:00:00,
2013-01-07 08:01:00,24.9,23.3,30.24,SSW,202,0.0,0.0,93,0.00,,,0.00,1,TxWx,2013-01-07 13:01:00,
2013-01-07 08:02:00,24.9,23.3,30.24,SSW,202,0.0,0.0,93,0.00,,,0.00,1,TxWx,2013-01-07 13:02:00,
2013-01-07 08:05:00,24.9,23.3,30.24,SSW,202,0.0,0.0,93,0.00,,,0.00,1,TxWx,2013-01-07 13:05:00,
2013-01-07 08:07:00,24.9,23.3,30.25,SSW,202,0.0,0.0,93,0.00,,,0.00,1,TxWx,2013-01-07 13:07:00,
2013-01-07 08:10:00,24.8,23.3,30.25,SSW,202,0.0,0.0,93,0.00,,,0.00,2,TxWx,2013-01-07 13:10:00,
2013-01-07 08:12:00,24.8,23.3,30.25,SSW,202,0.0,0.0,93,0.00,,,0.00,2,TxWx,2013-01-07 13:12:00,
2013-01-07 08:15:00,24.6,23.2,30.25,SSW,202,0.0,0.0,94,0.00,,,0.00,2,TxWx,2013-01-07 13:15:00,
2013-01-07 08:16:00,24.6,23.2,30.25,SSW,202,0.0,0.0,94,0.00,,,0.00,2,TxWx,2013-01-07 13:16:00,
2013-01-07 08:17:00,24.5,23.1,30.25,SSW,202,0.0,0.0,94,0.00,,,0.00,2,TxWx,2013-01-07 13:17:00,
2013-01-07 08:20:00,24.4,23.1,30.25,SSW,204,0.0,0.0,94,0.00,,,0.00,2,TxWx,2013-01-07 13:20:00,
2013-01-07 08:21:00,24.4,23.0,30.25,SSW,205,0.0,0.0,94,0.00,,,0.00,2,TxWx,2013-01-07 13:21:00,
2013-01-07 08:22:00,24.4,23.1,30.25,SSW,205,0.0,0.0,94,0.00,,,0.00,2,TxWx,2013-01-07 13:22:00,
2013-01-07 08:25:00,24.5,23.5,30.25,SSW,205,0.0,0.0,95,0.00,,,0.00,2,TxWx,2013-01-07 13:25:00,
2013-01-07 08:26:00,24.5,23.5,30.25,SSW,205,0.0,0.0,95,0.00,,,0.00,2,TxWx,2013-01-07 13:26:00,
2013-01-07 08:27:00,24.6,23.6,30.25,SSW,204,0.0,0.0,95,0.00,,,0.00,2,TxWx,2013-01-07 13:27:00,
2013-01-07 08:31:00,24.6,23.7,30.25,SSW,205,0.0,0.0,96,0.00,,,0.00,2,TxWx,2013-01-07 13:31:00,
2013-01-07 08:32:00,24.6,23.7,30.25,SSW,205,0.0,0.0,96,0.00,,,0.00,2,TxWx,2013-01-07 13:32:00,
2013-01-07 08:33:00,24.6,23.7,30.25,SSW,205,0.0,0.0,96,0.00,,,0.00,2,TxWx,2013-01-07 13:33:00,
2013-01-07 08:36:00,24.7,23.8,30.25,SSW,205,0.0,0.0,96,0.00,,,0.00,2,TxWx,2013-01-07 13:36:00,
2013-01-07 08:37:00,24.7,23.8,30.25,SSW,205,0.0,0.0,96,0.00,,,0.00,2,TxWx,2013-01-07 13:37:00,
2013-01-07 08:38:00,24.7,23.8,30.25,SSW,205,0.0,0.0,96,0.00,,,0.00,2,TxWx,2013-01-07 13:38:00,
2013-01-07 08:41:00,24.6,23.7,30.25,SSW,205,0.0,0.0,96,0.00,,,0.00,2,TxWx,2013-01-07 13:41:00,
2013-01-07 08:42:00,24.6,23.7,30.25,SSW,205,0.0,0.0,96,0.00,,,0.00,2,TxWx,2013-01-07 13:42:00,
2013-01-07 08:43:00,24.6,23.7,30.25,SSW,205,0.0,0.0,96,0.00,,,0.00,2,TxWx,2013-01-07 13:43:00,
2013-01-07 08:46:00,24.7,23.8,30.25,SSW,205,0.0,0.0,96,0.00,,,0.00,2,TxWx,2013-01-07 13:46:00,
2013-01-07 08:47:00,24.7,23.8,30.26,SSW,205,0.0,0.0,96,0.00,,,0.00,2,TxWx,2013-01-07 13:47:00,
2013-01-07 08:48:00,24.7,23.8,30.26,SSW,205,0.0,0.0,96,0.00,,,0.00,2,TxWx,2013-01-07 13:48:00,
2013-01-07 08:49:00,24.7,23.8,30.26,SSW,205,0.0,0.0,96,0.00,,,0.00,2,TxWx,2013-01-07 13:49:00,
2013-01-07 08:51:00,24.8,23.8,30.25,SSW,205,0.0,0.0,96,0.00,,,0.00,2,TxWx,2013-01-07 13:51:00,
2013-01-07 08:52:00,24.8,23.9,30.25,SSW,205,0.0,0.0,96,0.00,,,0.00,2,TxWx,2013-01-07 13:52:00,
2013-01-07 08:53:00,24.9,23.9,30.25,SSW,205,0.0,0.0,96,0.00,,,0.00,2,TxWx,2013-01-07 13:53:00,
2013-01-07 08:54:00,24.9,24.0,30.26,SSW,205,0.0,0.0,96,0.00,,,0.00,2,TxWx,2013-01-07 13:54:00,
2013-01-07 08:56:00,24.9,24.0,30.26,SSW,205,0.0,0.0,96,0.00,,,0.00,2,TxWx,2013-01-07 13:56:00,
2013-01-07 08:57:00,24.9,24.0,30.26,SSW,205,0.0,0.0,96,0.00,,,0.00,2,TxWx,2013-01-07 13:57:00,
2013-01-07 08:58:00,24.9,24.0,30.26,SSW,205,0.0,0.0,96,0.00,,,0.00,2,TxWx,2013-01-07 13:58:00,
2013-01-07 08:59:00,25.0,23.9,30.26,SSW,205,0.0,0.0,95,0.00,,,0.00,2,TxWx,2013-01-07 13:59:00,
2013-01-07 09:01:00,25.1,23.9,30.25,SSW,205,0.0,0.0,95,0.00,,,0.00,2,TxWx,2013-01-07 14:01:00,
2013-01-07 09:03:00,25.1,23.9,30.26,SSW,205,0.0,0.0,95,0.00,,,0.00,2,TxWx,2013-01-07 14:03:00,
2013-01-07 09:04:00,25.1,23.9,30.26,SSW,205,0.0,0.0,95,0.00,,,0.00,2,TxWx,2013-01-07 14:04:00,
2013-01-07 09:06:00,25.1,23.9,30.26,SSW,205,0.0,0.0,95,0.00,,,0.00,2,TxWx,2013-01-07 14:06:00,
2013-01-07 09:08:00,25.1,23.7,30.26,SSW,205,0.0,0.0,94,0.00,,,0.00,2,TxWx,2013-01-07 14:08:00,
2013-01-07 09:09:00,25.1,23.7,30.26,SSW,207,0.0,0.0,94,0.00,,,0.00,2,TxWx,2013-01-07 14:09:00,
2013-01-07 09:10:00,25.2,23.8,30.26,SSW,207,0.0,0.0,94,0.00,,,0.00,2,TxWx,2013-01-07 14:10:00,
2013-01-07 09:11:00,25.2,23.8,30.26,SSW,207,0.0,0.0,94,0.00,,,0.00,2,TxWx,2013-01-07 14:11:00,
2013-01-07 09:13:00,25.3,23.8,30.26,SSW,207,0.0,0.0,93,0.00,,,0.00,2,TxWx,2013-01-07 14:13:00,
2013-01-07 09:14:00,25.3,23.7,30.26,SSW,207,0.0,0.0,93,0.00,,,0.00,2,TxWx,2013-01-07 14:14:00,
2013-01-07 09:15:00,25.3,23.8,30.26,SSW,207,0.0,0.0,94,0.00,,,0.00,2,TxWx,2013-01-07 14:15:00,
2013-01-07 09:17:00,25.3,23.9,30.26,SSW,207,0.0,0.0,94,0.00,,,0.00,2,TxWx,2013-01-07 14:17:00,
2013-01-07 09:18:00,25.3,23.9,30.27,SSW,207,0.0,0.0,94,0.00,,,0.00,2,TxWx,2013-01-07 14:18:00,
2013-01-07 09:20:00,25.3,23.9,30.27,SSW,207,0.0,0.0,94,0.00,,,0.00,2,TxWx,2013-01-07 14:20:00,
2013-01-07 09:22:00,25.3,23.8,30.27,SSW,207,0.0,0.0,94,0.00,,,0.00,2,TxWx,2013-01-07 14:22:00,
2013-01-07 09:23:00,25.3,23.8,30.27,SSW,207,0.0,0.0,94,0.00,,,0.00,2,TxWx,2013-01-07 14:23:00,
2013-01-07 09:25:00,25.3,23.8,30.26,SSW,207,0.0,0.0,94,0.00,,,0.00,2,TxWx,2013-01-07 14:25:00,
2013-01-07 09:26:00,25.3,23.8,30.26,SSW,207,0.0,0.0,94,0.00,,,0.00,2,TxWx,2013-01-07 14:26:00,
2013-01-07 09:27:00,25.3,23.8,30.26,SSW,207,0.0,0.0,94,0.00,,,0.00,2,TxWx,2013-01-07 14:27:00,
2013-01-07 09:28:00,25.3,23.8,30.26,SSW,207,0.0,0.0,94,0.00,,,0.00,2,TxWx,2013-01-07 14:28:00,
2013-01-07 09:30:00,25.3,23.9,30.26,SSW,207,0.0,0.0,94,0.00,,,0.00,2,TxWx,2013-01-07 14:30:00,
2013-01-07 09:31:00,25.3,23.9,30.26,SSW,207,0.0,0.0,94,0.00,,,0.00,2,TxWx,2013-01-07 14:31:00,
2013-01-07 09:32:00,25.3,23.9,30.26,SSW,207,0.0,0.0,94,0.00,,,0.00,2,TxWx,2013-01-07 14:32:00,
2013-01-07 09:34:00,25.3,23.9,30.26,SSW,207,0.0,0.0,94,0.00,,,0.00,2,TxWx,2013-01-07 14:34:00,
2013-01-07 09:35:00,25.3,23.9,30.26,SSW,207,0.0,0.0,94,0.00,,,0.00,2,TxWx,2013-01-07 14:35:00,
2013-01-07 09:36:00,25.3,23.9,30.26,SSW,207,0.0,0.0,94,0.00,,,0.00,2,TxWx,2013-01-07 14:36:00,
2013-01-07 09:37:00,25.4,23.8,30.26,SSW,207,0.0,0.0,93,0.00,,,0.00,2,TxWx,2013-01-07 14:37:00,
2013-01-07 09:39:00,25.4,23.8,30.26,SSW,207,0.0,0.0,93,0.00,,,0.00,2,TxWx,2013-01-07 14:39:00,
2013-01-07 09:40:00,25.4,23.7,30.26,SSW,207,0.0,0.0,93,0.00,,,0.00,2,TxWx,2013-01-07 14:40:00,
2013-01-07 09:41:00,25.3,23.7,30.26,SSW,207,0.0,0.0,93,0.00,,,0.00,2,TxWx,2013-01-07 14:41:00,
2013-01-07 09:42:00,25.3,23.7,30.26,SSW,207,0.0,0.0,93,0.00,,,0.00,2,TxWx,2013-01-07 14:42:00,
2013-01-07 09:44:00,25.3,23.6,30.27,SSW,207,0.0,0.0,93,0.00,,,0.00,2,TxWx,2013-01-07 14:44:00,
2013-01-07 09:45:00,25.3,23.6,30.27,SSW,207,0.0,0.0,93,0.00,,,0.00,2,TxWx,2013-01-07 14:45:00,
2013-01-07 09:47:00,25.4,23.6,30.27,SSW,207,0.0,0.0,92,0.00,,,0.00,2,TxWx,2013-01-07 14:47:00,
2013-01-07 09:49:00,25.5,23.6,30.26,SSW,207,0.0,0.0,92,0.00,,,0.00,2,TxWx,2013-01-07 14:49:00,
2013-01-07 09:51:00,25.6,23.4,30.26,SSW,207,0.0,0.0,91,0.00,,,0.00,2,TxWx,2013-01-07 14:51:00,
2013-01-07 09:52:00,25.7,23.3,30.26,SSW,207,0.0,0.0,90,0.00,,,0.00,2,TxWx,2013-01-07 14:52:00,
2013-01-07 09:55:00,25.9,22.9,30.26,SSW,207,0.0,0.0,88,0.00,,,0.00,2,TxWx,2013-01-07 14:55:00,
2013-01-07 09:56:00,26.0,22.8,30.26,SSW,207,0.0,0.0,87,0.00,,,0.00,2,TxWx,2013-01-07 14:56:00,
2013-01-07 09:57:00,26.0,22.8,30.26,SSW,207,0.0,0.0,87,0.00,,,0.00,2,TxWx,2013-01-07 14:57:00,
2013-01-07 09:58:00,26.0,22.8,30.26,SSW,207,0.0,0.0,87,0.00,,,0.00,2,TxWx,2013-01-07 14:58:00,
2013-01-07 10:00:00,26.1,22.9,30.27,SSW,207,0.0,0.0,87,0.00,,,0.00,2,TxWx,2013-01-07 15:00:00,
2013-01-07 10:01:00,26.1,22.9,30.27,SSW,207,0.0,0.0,87,0.00,,,0.00,2,TxWx,2013-01-07 15:01:00,
2013-01-07 10:02:00,26.1,22.9,30.27,SSW,207,0.0,0.0,87,0.00,,,0.00,2,TxWx,2013-01-07 15:02:00,
2013-01-07 10:03:00,26.1,22.9,30.27,SSW,207,0.0,0.0,87,0.00,,,0.00,2,TxWx,2013-01-07 15:03:00,
2013-01-07 10:05:00,26.1,23.0,30.27,SSW,207,0.0,0.0,87,0.00,,,0.00,2,TxWx,2013-01-07 15:05:00,
2013-01-07 10:06:00,26.1,23.0,30.27,SSW,207,0.0,0.0,87,0.00,,,0.00,2,TxWx,2013-01-07 15:06:00,
2013-01-07 10:07:00,26.1,23.0,30.27,SSW,207,0.0,0.0,87,0.00,,,0.00,2,TxWx,2013-01-07 15:07:00,
2013-01-07 10:08:00,26.1,23.0,30.27,SSW,207,0.0,0.0,87,0.00,,,0.00,2,TxWx,2013-01-07 15:08:00,
2013-01-07 10:10:00,26.2,23.2,30.27,SSW,207,0.0,0.0,88,0.00,,,0.00,2,TxWx,2013-01-07 15:10:00,
2013-01-07 10:11:00,26.2,23.3,30.27,SSW,207,0.0,0.0,88,0.00,,,0.00,2,TxWx,2013-01-07 15:11:00,
2013-01-07 10:12:00,26.3,23.4,30.27,SSW,207,0.0,0.0,88,0.00,,,0.00,2,TxWx,2013-01-07 15:12:00,
2013-01-07 10:13:00,26.3,23.4,30.27,SSW,207,0.0,0.0,88,0.00,,,0.00,2,TxWx,2013-01-07 15:13:00,
2013-01-07 10:15:00,26.4,23.4,30.27,SSW,207,0.0,0.0,88,0.00,,,0.00,2,TxWx,2013-01-07 15:15:00,
2013-01-07 10:16:00,26.4,23.2,30.27,SSW,207,0.0,0.0,87,0.00,,,0.00,2,TxWx,2013-01-07 15:16:00,
2013-01-07 10:17:00,26.5,23.0,30.27,SSW,207,0.0,0.0,86,0.00,,,0.00,3,TxWx,2013-01-07 15:17:00,
2013-01-07 10:18:00,26.5,22.9,30.27,SSW,207,0.0,0.0,86,0.00,,,0.00,3,TxWx,2013-01-07 15:18:00,
2013-01-07 10:20:00,26.6,23.0,30.27,SSW,207,0.0,0.0,86,0.00,,,0.00,2,TxWx,2013-01-07 15:20:00,
2013-01-07 10:22:00,26.7,23.2,30.27,SSW,207,0.0,0.0,86,0.00,,,0.00,3,TxWx,2013-01-07 15:22:00,
2013-01-07 10:23:00,26.7,23.6,30.27,SSW,207,0.0,0.0,87,0.00,,,0.00,3,TxWx,2013-01-07 15:23:00,
2013-01-07 10:25:00,26.8,23.3,30.27,SSW,207,0.0,0.0,86,0.00,,,0.00,3,TxWx,2013-01-07 15:25:00,
2013-01-07 10:27:00,26.9,23.3,30.27,SSW,207,0.0,0.0,86,0.00,,,0.00,3,TxWx,2013-01-07 15:27:00,
2013-01-07 10:28:00,27.0,23.5,30.27,SSW,207,0.0,0.0,86,0.00,,,0.00,3,TxWx,2013-01-07 15:28:00,
2013-01-07 10:30:00,27.0,23.5,30.27,SSW,207,0.0,0.0,86,0.00,,,0.00,3,TxWx,2013-01-07 15:30:00,
2013-01-07 10:32:00,27.0,23.2,30.27,SSW,207,0.0,0.0,85,0.00,,,0.00,3,TxWx,2013-01-07 15:32:00,
2013-01-07 10:33:00,27.0,23.2,30.27,SSW,207,0.0,0.0,85,0.00,,,0.00,3,TxWx,2013-01-07 15:33:00,
2013-01-07 10:35:00,27.3,23.9,30.26,SSW,207,0.0,0.0,86,0.00,,,0.00,3,TxWx,2013-01-07 15:35:00,
2013-01-07 10:37:00,27.5,24.4,30.26,SSW,207,0.0,0.0,88,0.00,,,0.00,3,TxWx,2013-01-07 15:37:00,
2013-01-07 10:38:00,27.5,24.4,30.26,SSW,203,0.0,0.0,88,0.00,,,0.00,3,TxWx,2013-01-07 15:38:00,
2013-01-07 10:41:00,28.4,23.4,30.26,SSW,203,0.0,0.0,81,0.00,,,0.00,3,TxWx,2013-01-07 15:41:00,
2013-01-07 10:42:00,28.5,22.1,30.26,SSW,203,0.0,0.0,76,0.00,,,0.00,3,TxWx,2013-01-07 15:42:00,
2013-01-07 10:43:00,28.5,22.1,30.26,WNW,285,0.0,0.0,76,0.00,,,0.00,3,TxWx,2013-01-07 15:43:00,
2013-01-07 10:44:00,28.6,22.5,30.26,WNW,285,0.0,0.0,77,0.00,,,0.00,3,TxWx,2013-01-07 15:44:00,
2013-01-07 10:46:00,28.7,23.2,30.26,SSW,211,0.0,0.0,79,0.00,,,0.00,3,TxWx,2013-01-07 15:46:00,
2013-01-07 10:47:00,28.7,23.5,30.26,SSW,211,0.0,0.0,80,0.00,,,0.00,3,TxWx,2013-01-07 15:47:00,
2013-01-07 10:48:00,28.7,23.5,30.26,SSW,211,0.0,0.0,80,0.00,,,0.00,3,TxWx,2013-01-07 15:48:00,
2013-01-07 10:49:00,28.7,23.8,30.26,SSW,212,0.0,0.0,81,0.00,,,0.00,3,TxWx,2013-01-07 15:49:00,
2013-01-07 10:51:00,28.8,24.1,30.26,SSE,168,0.0,0.0,82,0.00,,,0.00,3,TxWx,2013-01-07 15:51:00,
2013-01-07 10:53:00,28.9,24.3,30.26,ESE,122,0.0,0.0,82,0.00,,,0.00,3,TxWx,2013-01-07 15:53:00,
2013-01-07 10:54:00,28.9,23.9,30.26,ESE,122,0.0,0.0,81,0.00,,,0.00,3,TxWx,2013-01-07 15:54:00,
2013-01-07 10:56:00,29.1,23.2,30.26,ESE,122,0.0,0.0,78,0.00,,,0.00,3,TxWx,2013-01-07 15:56:00,
2013-01-07 10:58:00,29.3,23.4,30.26,ESE,122,0.0,0.0,78,0.00,,,0.00,3,TxWx,2013-01-07 15:58:00,
2013-01-07 10:59:00,29.3,23.0,30.26,ESE,122,0.0,0.0,77,0.00,,,0.00,3,TxWx,2013-01-07 15:59:00,
2013-01-07 11:01:00,29.6,22.6,30.26,ESE,122,0.0,0.0,74,0.00,,,0.00,3,TxWx,2013-01-07 16:01:00,
2013-01-07 11:03:00,29.8,21.2,30.26,ESE,122,0.0,0.0,69,0.00,,,0.00,3,TxWx,2013-01-07 16:03:00,
2013-01-07 11:04:00,30.0,20.9,30.26,South,186,0.0,0.0,68,0.00,,,0.00,3,TxWx,2013-01-07 16:04:00,
2013-01-07 11:06:00,30.3,20.7,30.26,South,191,0.0,0.0,67,0.00,,,0.00,3,TxWx,2013-01-07 16:06:00,
2013-01-07 11:08:00,30.5,20.1,30.26,South,190,0.0,0.0,64,0.00,,,0.00,4,TxWx,2013-01-07 16:08:00,
2013-01-07 11:09:00,30.6,20.2,30.26,SW,214,0.0,0.0,65,0.00,,,0.00,4,TxWx,2013-01-07 16:09:00,
2013-01-07 11:11:00,30.8,20.6,30.26,SSW,213,0.0,0.0,65,0.00,,,0.00,4,TxWx,2013-01-07 16:11:00,
2013-01-07 11:13:00,31.0,21.1,30.26,SSW,212,0.0,0.0,66,0.00,,,0.00,4,TxWx,2013-01-07 16:13:00,
2013-01-07 11:14:00,31.0,21.1,30.26,SSW,212,0.0,0.0,66,0.00,,,0.00,4,TxWx,2013-01-07 16:14:00,
2013-01-07 11:16:00,31.2,20.7,30.26,SSW,212,0.0,0.0,64,0.00,,,0.00,4,TxWx,2013-01-07 16:16:00,
2013-01-07 11:18:00,31.5,21.6,30.26,SSW,202,0.0,0.0,66,0.00,,,0.00,4,TxWx,2013-01-07 16:18:00,
2013-01-07 11:19:00,31.5,21.6,30.26,SSW,202,0.0,0.0,66,0.00,,,0.00,4,TxWx,2013-01-07 16:19:00,
2013-01-07 11:20:00,31.5,21.6,30.26,SSW,202,0.0,0.0,66,0.00,,,0.00,4,TxWx,2013-01-07 16:20:00,
2013-01-07 11:21:00,31.6,21.7,30.26,South,174,0.0,0.0,66,0.00,,,0.00,5,TxWx,2013-01-07 16:21:00,
2013-01-07 11:23:00,31.7,20.6,30.26,South,174,0.0,0.0,63,0.00,,,0.00,8,TxWx,2013-01-07 16:23:00,
2013-01-07 11:24:00,31.8,20.6,30.26,South,174,0.0,0.0,62,0.00,,,0.00,13,TxWx,2013-01-07 16:24:00,
2013-01-07 11:25:00,31.8,20.3,30.26,South,172,0.0,0.0,62,0.00,,,0.00,13,TxWx,2013-01-07 16:25:00,
2013-01-07 11:27:00,32.1,20.6,30.25,South,172,0.0,0.0,62,0.00,,,0.00,8,TxWx,2013-01-07 16:27:00,
2013-01-07 11:28:00,32.1,20.4,30.25,South,174,0.0,0.0,61,0.00,,,0.00,13,TxWx,2013-01-07 16:28:00,
2013-01-07 11:29:00,32.3,20.1,30.25,South,174,0.0,0.0,60,0.00,,,0.00,13,TxWx,2013-01-07 16:29:00,
2013-01-07 11:30:00,32.4,20.0,30.25,South,178,0.0,0.0,59,0.00,,,0.00,10,TxWx,2013-01-07 16:30:00,
2013-01-07 11:32:00,32.7,19.8,30.25,South,176,0.0,0.0,58,0.00,,,0.00,12,TxWx,2013-01-07 16:32:00,
2013-01-07 11:33:00,32.8,19.8,30.25,South,176,0.0,0.0,58,0.00,,,0.00,9,TxWx,2013-01-07 16:33:00,
2013-01-07 11:34:00,32.9,19.6,30.25,South,176,0.0,0.0,57,0.00,,,0.00,6,TxWx,2013-01-07 16:34:00,
2013-01-07 11:35:00,33.0,19.3,30.25,South,178,0.0,0.0,56,0.00,,,0.00,9,TxWx,2013-01-07 16:35:00,
2013-01-07 11:37:00,33.2,20.0,30.25,South,179,0.0,0.0,57,0.00,,,0.00,10,TxWx,2013-01-07 16:37:00,
2013-01-07 11:38:00,33.3,19.9,30.25,South,169,0.0,0.0,57,0.00,,,0.00,5,TxWx,2013-01-07 16:38:00,
2013-01-07 11:39:00,33.4,19.7,30.25,SSE,168,0.0,0.0,56,0.00,,,0.00,10,TxWx,2013-01-07 16:39:00,
2013-01-07 11:40:00,33.5,19.6,30.25,SSE,168,0.0,0.0,56,0.00,,,0.00,13,TxWx,2013-01-07 16:40:00,
2013-01-07 11:42:00,33.7,19.7,30.25,SSE,168,0.0,0.0,56,0.00,,,0.00,11,TxWx,2013-01-07 16:42:00,
2013-01-07 11:43:00,33.8,19.6,30.25,SSE,164,0.0,0.0,55,0.00,,,0.00,16,TxWx,2013-01-07 16:43:00,
2013-01-07 11:44:00,34.0,19.3,30.25,SSE,163,0.0,0.0,54,0.00,,,0.00,31,TxWx,2013-01-07 16:44:00,
2013-01-07 11:45:00,34.1,18.6,30.25,SSE,163,0.0,0.0,52,0.00,,,0.00,27,TxWx,2013-01-07 16:45:00,
2013-01-07 11:47:00,34.3,18.8,30.25,SSE,163,0.0,0.0,52,0.00,,,0.00,6,TxWx,2013-01-07 16:47:00,
2013-01-07 11:48:00,34.4,19.1,30.25,SSE,163,0.0,0.0,53,0.00,,,0.00,5,TxWx,2013-01-07 16:48:00,
2013-01-07 11:49:00,34.5,18.7,30.24,SSE,163,0.0,0.0,52,0.00,,,0.00,5,TxWx,2013-01-07 16:49:00,
2013-01-07 11:50:00,34.6,18.6,30.24,SSE,162,0.0,0.0,51,0.00,,,0.00,5,TxWx,2013-01-07 16:50:00,
2013-01-07 11:52:00,34.8,18.2,30.24,SSE,161,0.0,0.0,50,0.00,,,0.00,12,TxWx,2013-01-07 16:52:00,
2013-01-07 11:53:00,34.9,18.3,30.24,SSE,160,0.0,0.0,50,0.00,,,0.00,12,TxWx,2013-01-07 16:53:00,
2013-01-07 11:55:00,35.0,18.5,30.24,SSE,161,0.0,0.0,50,0.00,,,0.00,8,TxWx,2013-01-07 16:55:00,
2013-01-07 11:56:00,35.1,18.5,30.24,SSE,162,0.0,0.0,50,0.00,,,0.00,15,TxWx,2013-01-07 16:56:00,
2013-01-07 11:57:00,35.0,18.8,30.24,SSE,161,0.0,0.0,51,0.00,,,0.00,13,TxWx,2013-01-07 16:57:00,
2013-01-07 11:58:00,35.1,18.6,30.24,SSE,158,0.0,0.0,50,0.00,,,0.00,7,TxWx,2013-01-07 16:58:00,
2013-01-07 12:00:00,35.2,19.2,30.24,SSE,159,0.0,0.0,51,0.00,,,0.00,7,TxWx,2013-01-07 17:00:00,
2013-01-07 12:01:00,35.2,19.4,30.24,SSE,159,0.0,0.0,52,0.00,,,0.00,7,TxWx,2013-01-07 17:01:00,
2013-01-07 12:02:00,35.2,19.6,30.24,SSE,159,0.0,0.0,52,0.00,,,0.00,6,TxWx,2013-01-07 17:02:00,
2013-01-07 12:04:00,35.3,19.3,30.24,SSE,149,0.0,0.0,51,0.00,,,0.00,6,TxWx,2013-01-07 17:04:00,
2013-01-07 12:05:00,35.4,19.5,30.24,SSE,148,0.0,0.0,51,0.00,,,0.00,12,TxWx,2013-01-07 17:05:00,
2013-01-07 12:06:00,35.5,20.6,30.24,SSE,148,0.0,0.0,54,0.00,,,0.00,14,TxWx,2013-01-07 17:06:00,
2013-01-07 12:08:00,35.6,21.5,30.24,SE,142,0.0,0.0,56,0.00,,,0.00,13,TxWx,2013-01-07 17:08:00,
2013-01-07 12:09:00,35.6,22.5,30.24,SSE,147,0.0,0.0,58,0.00,,,0.00,10,TxWx,2013-01-07 17:09:00,
2013-01-07 12:11:00,35.8,22.8,30.23,SSE,147,0.0,0.0,58,0.00,,,0.00,7,TxWx,2013-01-07 17:11:00,
2013-01-07 12:13:00,35.9,23.0,30.23,SSE,150,0.3,0.0,59,0.00,,,0.00,12,TxWx,2013-01-07 17:13:00,
2013-01-07 12:14:00,35.9,23.2,30.23,SE,146,0.7,0.0,59,0.00,,,0.00,14,TxWx,2013-01-07 17:14:00,
2013-01-07 12:16:00,36.0,23.2,30.23,SE,143,0.3,0.0,59,0.00,,,0.00,16,TxWx,2013-01-07 17:16:00,
2013-01-07 12:18:00,36.3,23.2,30.23,SSE,148,1.1,1.1,58,0.00,,,0.00,8,TxWx,2013-01-07 17:18:00,
2013-01-07 12:19:00,36.4,23.0,30.23,SSE,147,0.7,0.0,58,0.00,,,0.00,12,TxWx,2013-01-07 17:19:00,
2013-01-07 12:21:00,36.5,22.7,30.23,SSE,153,0.7,0.0,56,0.00,,,0.00,13,TxWx,2013-01-07 17:21:00,
2013-01-07 12:23:00,36.9,22.2,30.23,SSE,149,0.7,0.0,55,0.00,,,0.00,10,TxWx,2013-01-07 17:23:00,
2013-01-07 12:24:00,36.9,22.3,30.23,SE,146,0.7,0.0,55,0.00,,,0.00,9,TxWx,2013-01-07 17:24:00,
2013-01-07 12:26:00,37.0,22.4,30.23,SSE,148,0.7,0.0,55,0.00,,,0.00,12,TxWx,2013-01-07 17:26:00,
2013-01-07 12:27:00,37.1,22.3,30.23,SSE,148,1.1,1.1,54,0.00,,,0.00,12,TxWx,2013-01-07 17:27:00,
2013-01-07 12:28:00,37.1,22.2,30.23,SSE,149,0.7,1.0,54,0.00,,,0.00,10,TxWx,2013-01-07 17:28:00,
2013-01-07 12:30:00,37.3,22.3,30.22,SSE,150,0.7,1.0,54,0.00,,,0.00,8,TxWx,2013-01-07 17:30:00,
2013-01-07 12:31:00,37.2,22.2,30.22,SSE,152,0.7,1.0,54,0.00,,,0.00,8,TxWx,2013-01-07 17:31:00,
2013-01-07 12:32:00,37.3,22.0,30.22,SSE,153,0.7,1.0,53,0.00,,,0.00,8,TxWx,2013-01-07 17:32:00,
2013-01-07 12:33:00,37.3,22.2,30.22,SSE,156,0.7,0.0,53,0.00,,,0.00,21,TxWx,2013-01-07 17:33:00,
2013-01-07 12:35:00,37.6,21.8,30.22,SSE,149,0.7,0.0,52,0.00,,,0.00,20,TxWx,2013-01-07 17:35:00,
2013-01-07 12:37:00,37.7,22.1,30.22,SSE,148,0.7,0.0,52,0.00,,,0.00,27,TxWx,2013-01-07 17:37:00,
2013-01-07 12:38:00,37.9,23.3,30.22,SE,140,0.7,0.0,55,0.00,,,0.00,33,TxWx,2013-01-07 17:38:00,
2013-01-07 12:40:00,38.1,24.0,30.22,SE,139,0.7,0.0,56,0.00,,,0.00,30,TxWx,2013-01-07 17:40:00,
2013-01-07 12:42:00,38.2,24.3,30.22,SE,145,0.7,0.0,56,0.00,,,0.00,30,TxWx,2013-01-07 17:42:00,
2013-01-07 12:44:00,38.5,24.0,30.22,SE,137,0.7,0.0,55,0.00,,,0.00,19,TxWx,2013-01-07 17:44:00,
2013-01-07 12:45:00,38.6,24.0,30.22,SSE,155,0.7,0.0,55,0.00,,,0.00,15,TxWx,2013-01-07 17:45:00,
2013-01-07 12:47:00,38.6,24.0,30.22,SSE,156,1.1,1.1,55,0.00,,,0.00,15,TxWx,2013-01-07 17:47:00,
2013-01-07 12:49:00,38.8,24.0,30.22,SSE,156,0.7,0.0,54,0.00,,,0.00,29,TxWx,2013-01-07 17:49:00,
2013-01-07 12:50:00,38.9,24.0,30.22,SSE,150,0.7,1.0,54,0.00,,,0.00,25,TxWx,2013-01-07 17:50:00,
2013-01-07 12:52:00,39.1,23.7,30.22,SSE,150,0.7,1.0,53,0.00,,,0.00,25,TxWx,2013-01-07 17:52:00,
2013-01-07 12:54:00,39.2,23.6,30.22,SSE,151,0.7,0.0,53,0.00,,,0.00,25,TxWx,2013-01-07 17:54:00,
2013-01-07 12:55:00,39.2,23.7,30.22,SSE,149,0.7,1.0,53,0.00,,,0.00,22,TxWx,2013-01-07 17:55:00,
2013-01-07 12:57:00,39.3,23.6,30.22,SSE,148,0.3,0.0,53,0.00,,,0.00,27,TxWx,2013-01-07 17:57:00,
2013-01-07 12:59:00,39.5,23.7,30.22,SE,136,0.7,0.0,52,0.00,,,0.00,60,TxWx,2013-01-07 17:59:00,
2013-01-07 13:00:00,39.6,23.7,30.22,SE,137,0.7,0.0,52,0.00,,,0.00,60,TxWx,2013-01-07 18:00:00,
2013-01-07 13:02:00,39.8,22.8,30.22,SE,145,0.7,0.0,50,0.00,,,0.00,45,TxWx,2013-01-07 18:02:00,
2013-01-07 13:04:00,40.1,20.8,30.22,SE,145,1.5,1.5,45,0.00,,,0.00,49,TxWx,2013-01-07 18:04:00,
2013-01-07 13:06:00,40.0,20.0,30.22,SSE,148,0.7,0.0,44,0.00,,,0.00,72,TxWx,2013-01-07 18:06:00,
2013-01-07 13:07:00,40.1,19.3,30.21,SSE,149,0.7,1.0,42,0.00,,,0.00,42,TxWx,2013-01-07 18:07:00,
2013-01-07 13:10:00,40.3,18.5,30.21,SE,134,1.1,1.1,41,0.00,,,0.00,50,TxWx,2013-01-07 18:10:00,
2013-01-07 13:11:00,40.6,19.9,30.21,SE,134,0.3,0.0,43,0.00,,,0.00,59,TxWx,2013-01-07 18:11:00,
2013-01-07 13:12:00,40.6,20.6,30.21,ESE,110,0.7,0.0,44,0.00,,,0.00,23,TxWx,2013-01-07 18:12:00,
2013-01-07 13:15:00,40.6,21.2,30.21,SE,136,1.1,1.1,45,0.00,,,0.00,36,TxWx,2013-01-07 18:15:00,
2013-01-07 13:16:00,40.5,22.0,30.21,SSE,149,0.7,1.0,47,0.00,,,0.00,71,TxWx,2013-01-07 18:16:00,
2013-01-07 13:17:00,40.7,22.0,30.21,SSE,153,0.7,0.0,46,0.00,,,0.00,72,TxWx,2013-01-07 18:17:00,
2013-01-07 13:20:00,40.9,22.1,30.21,SE,143,0.7,0.0,46,0.00,,,0.00,59,TxWx,2013-01-07 18:20:00,
2013-01-07 13:21:00,40.8,23.1,30.21,SE,142,0.7,0.0,48,0.00,,,0.00,48,TxWx,2013-01-07 18:21:00,
2013-01-07 13:22:00,40.9,22.8,30.21,SE,142,0.0,0.0,48,0.00,,,0.00,62,TxWx,2013-01-07 18:22:00,
2013-01-07 13:23:00,41.1,22.5,30.21,SE,142,0.0,0.0,47,0.00,,,0.00,62,TxWx,2013-01-07 18:23:00,
2013-01-07 13:25:00,41.1,22.9,30.20,SSE,159,0.7,0.0,47,0.00,,,0.00,85,TxWx,2013-01-07 18:25:00,
2013-01-07 13:26:00,41.4,22.5,30.20,SSE,152,0.7,1.0,46,0.00,,,0.00,83,TxWx,2013-01-07 18:26:00,
2013-01-07 13:28:00,41.6,22.8,30.20,South,174,0.3,0.0,46,0.00,,,0.00,68,TxWx,2013-01-07 18:28:00,
2013-01-07 13:30:00,41.6,23.2,30.20,SE,146,0.7,1.0,47,0.00,,,0.00,57,TxWx,2013-01-07 18:30:00,
2013-01-07 13:31:00,41.8,22.8,30.20,SE,146,0.7,0.0,46,0.00,,,0.00,66,TxWx,2013-01-07 18:31:00,
2013-01-07 13:33:00,42.0,22.9,30.20,SE,146,0.3,0.0,46,0.00,,,0.00,67,TxWx,2013-01-07 18:33:00,
2013-01-07 13:35:00,42.4,23.2,30.20,SSE,152,0.7,1.0,46,0.00,,,0.00,84,TxWx,2013-01-07 18:35:00,
2013-01-07 13:36:00,42.3,23.6,30.20,SSE,152,1.1,1.1,47,0.00,,,0.00,108,TxWx,2013-01-07 18:36:00,
2013-01-07 13:38:00,42.3,23.1,30.20,SSE,150,1.1,1.1,46,0.00,,,0.00,111,TxWx,2013-01-07 18:38:00,
2013-01-07 13:41:00,42.6,23.3,30.20,SSE,152,0.7,0.0,46,0.00,,,0.00,123,TxWx,2013-01-07 18:41:00,
2013-01-07 13:42:00,42.6,23.6,30.20,SSE,152,0.7,0.0,46,0.00,,,0.00,151,TxWx,2013-01-07 18:42:00,
2013-01-07 13:43:00,42.7,23.5,30.20,SSE,152,0.7,0.0,46,0.00,,,0.00,156,TxWx,2013-01-07 18:43:00,
2013-01-07 13:46:00,43.1,23.3,30.20,SE,143,0.7,1.0,45,0.00,,,0.00,163,TxWx,2013-01-07 18:46:00,
2013-01-07 13:47:00,43.3,23.7,30.20,SSE,168,0.7,0.0,45,0.00,,,0.00,164,TxWx,2013-01-07 18:47:00,
2013-01-07 13:48:00,43.5,23.8,30.20,SSE,154,0.3,0.0,45,0.00,,,0.00,165,TxWx,2013-01-07 18:48:00,
2013-01-07 13:51:00,44.0,23.3,30.20,SE,146,0.7,0.0,43,0.00,,,0.00,164,TxWx,2013-01-07 18:51:00,
2013-01-07 13:52:00,44.1,23.4,30.20,SE,146,0.3,0.0,43,0.00,,,0.00,164,TxWx,2013-01-07 18:52:00,
2013-01-07 13:53:00,44.4,23.4,30.20,ESE,119,0.7,0.0,43,0.00,,,0.00,164,TxWx,2013-01-07 18:53:00,
2013-01-07 13:56:00,44.9,23.8,30.20,SE,141,0.3,0.0,42,0.00,,,0.00,162,TxWx,2013-01-07 18:56:00,
2013-01-07 13:57:00,45.2,23.8,30.20,SE,130,0.7,0.0,42,0.00,,,0.00,162,TxWx,2013-01-07 18:57:00,
2013-01-07 13:58:00,45.2,24.0,30.20,SE,137,0.7,0.0,42,0.00,,,0.00,160,TxWx,2013-01-07 18:58:00,
2013-01-07 13:59:00,45.3,24.3,30.20,ESE,114,0.3,0.0,43,0.00,,,0.00,157,TxWx,2013-01-07 18:59:00,
2013-01-07 14:01:00,45.2,24.0,30.20,ESE,118,0.7,1.0,42,0.00,,,0.00,150,TxWx,2013-01-07 19:01:00,
2013-01-07 14:02:00,45.0,24.4,30.20,SE,134,1.1,1.1,44,0.00,,,0.00,151,TxWx,2013-01-07 19:02:00,
2013-01-07 14:03:00,44.9,24.7,30.20,ESE,107,0.3,0.0,44,0.00,,,0.00,156,TxWx,2013-01-07 19:03:00,
2013-01-07 14:05:00,45.3,23.6,30.20,East,81,0.7,0.0,42,0.00,,,0.00,160,TxWx,2013-01-07 19:05:00,
2013-01-07 14:07:00,45.5,23.6,30.20,East,90,0.3,0.0,41,0.00,,,0.00,160,TxWx,2013-01-07 19:07:00,
2013-01-07 14:08:00,45.7,23.7,30.20,SSE,155,1.5,1.5,41,0.00,,,0.00,160,TxWx,2013-01-07 19:08:00,
2013-01-07 14:10:00,45.6,23.8,30.20,SSE,155,1.1,1.1,41,0.00,,,0.00,159,TxWx,2013-01-07 19:10:00,
2013-01-07 14:12:00,45.6,24.1,30.19,SE,137,0.7,1.0,42,0.00,,,0.00,158,TxWx,2013-01-07 19:12:00,
2013-01-07 14:14:00,45.9,23.2,30.19,ESE,115,0.3,0.0,40,0.00,,,0.00,157,TxWx,2013-01-07 19:14:00,
2013-01-07 14:16:00,45.7,23.3,30.20,SE,144,1.1,1.1,40,0.00,,,0.00,157,TxWx,2013-01-07 19:16:00,
2013-01-07 14:17:00,45.6,23.5,30.20,SSE,162,0.7,0.0,41,0.00,,,0.00,156,TxWx,2013-01-07 19:17:00,
2013-01-07 14:19:00,45.6,23.5,30.19,SSE,156,1.1,1.1,41,0.00,,,0.00,155,TxWx,2013-01-07 19:19:00,
2013-01-07 14:21:00,45.5,23.8,30.19,SSE,157,0.7,1.0,42,0.00,,,0.00,155,TxWx,2013-01-07 19:21:00,
2013-01-07 14:22:00,45.5,23.8,30.19,SSE,147,0.7,1.0,42,0.00,,,0.00,154,TxWx,2013-01-07 19:22:00,
2013-01-07 14:23:00,45.6,23.7,30.19,SE,139,0.7,1.0,41,0.00,,,0.00,154,TxWx,2013-01-07 19:23:00,
2013-01-07 14:24:00,45.6,24.1,30.19,SE,138,1.1,1.1,42,0.00,,,0.00,153,TxWx,2013-01-07 19:24:00,
2013-01-07 14:26:00,45.6,23.2,30.19,SE,139,0.7,1.0,40,0.00,,,0.00,153,TxWx,2013-01-07 19:26:00,
2013-01-07 14:27:00,45.7,23.2,30.19,SE,139,0.3,0.0,40,0.00,,,0.00,151,TxWx,2013-01-07 19:27:00,
2013-01-07 14:28:00,45.7,23.9,30.19,ESE,117,1.1,1.1,42,0.00,,,0.00,147,TxWx,2013-01-07 19:28:00,
2013-01-07 14:29:00,45.5,24.1,30.19,ESE,118,1.1,1.1,42,0.00,,,0.00,142,TxWx,2013-01-07 19:29:00,
2013-01-07 14:31:00,45.9,23.4,30.19,ESE,121,0.0,0.0,40,0.00,,,0.00,135,TxWx,2013-01-07 19:31:00,
2013-01-07 14:32:00,46.0,23.3,30.20,ESE,107,0.0,0.0,40,0.00,,,0.00,129,TxWx,2013-01-07 19:32:00,
2013-01-07 14:33:00,46.1,23.4,30.20,East,99,0.0,0.0,40,0.00,,,0.00,119,TxWx,2013-01-07 19:33:00,
2013-01-07 14:34:00,46.3,23.5,30.20,East,99,0.0,0.0,40,0.00,,,0.00,90,TxWx,2013-01-07 19:34:00,
2013-01-07 14:36:00,46.4,23.6,30.20,SSE,150,0.0,0.0,40,0.00,,,0.00,75,TxWx,2013-01-07 19:36:00,
2013-01-07 14:37:00,46.6,23.7,30.20,SSE,150,0.0,0.0,40,0.00,,,0.00,66,TxWx,2013-01-07 19:37:00,
2013-01-07 14:38:00,46.6,24.0,30.20,SE,138,0.7,1.0,40,0.00,,,0.00,60,TxWx,2013-01-07 19:38:00,
2013-01-07 14:39:00,46.3,24.4,30.20,ENE,58,0.3,0.0,41,0.00,,,0.00,55,TxWx,2013-01-07 19:39:00,
2013-01-07 14:41:00,46.4,23.6,30.20,ESE,114,0.7,1.0,40,0.00,,,0.00,33,TxWx,2013-01-07 19:41:00,
2013-01-07 14:42:00,46.3,23.5,30.20,ENE,74,0.0,0.0,40,0.00,,,0.00,33,TxWx,2013-01-07 19:42:00,
2013-01-07 14:43:00,46.4,23.6,30.20,ESE,120,0.7,0.0,40,0.00,,,0.00,28,TxWx,2013-01-07 19:43:00,
2013-01-07 14:45:00,46.0,24.7,30.20,ESE,122,0.3,0.0,42,0.00,,,0.00,23,TxWx,2013-01-07 19:45:00,
2013-01-07 14:46:00,45.8,24.7,30.20,SSE,150,0.3,0.0,43,0.00,,,0.00,24,TxWx,2013-01-07 19:46:00,
2013-01-07 14:48:00,45.5,24.6,30.20,SSE,164,0.3,0.0,43,0.00,,,0.00,23,TxWx,2013-01-07 19:48:00,
2013-01-07 14:50:00,45.4,24.9,30.20,SSW,200,0.3,0.0,44,0.00,,,0.00,22,TxWx,2013-01-07 19:50:00,
2013-01-07 14:51:00,45.4,24.6,30.20,SSW,200,0.3,0.0,43,0.00,,,0.00,30,TxWx,2013-01-07 19:51:00,
2013-01-07 14:53:00,45.3,24.5,30.20,SSW,200,0.3,0.0,43,0.00,,,0.00,24,TxWx,2013-01-07 19:53:00,
2013-01-07 14:54:00,45.3,24.1,30.20,SSW,200,0.3,0.0,42,0.00,,,0.00,20,TxWx,2013-01-07 19:54:00,
2013-01-07 14:55:00,45.3,24.1,30.20,SSW,198,0.3,0.0,42,0.00,,,0.00,16,TxWx,2013-01-07 19:55:00,
2013-01-07 14:56:00,45.4,24.2,30.20,SSW,198,0.7,0.0,43,0.00,,,0.00,14,TxWx,2013-01-07 19:56:00,
2013-01-07 14:58:00,45.5,24.0,30.20,SSW,195,0.7,0.0,42,0.00,,,0.00,18,TxWx,2013-01-07 19:58:00,
2013-01-07 14:59:00,45.5,24.8,30.20,South,190,0.7,1.0,43,0.00,,,0.00,14,TxWx,2013-01-07 19:59:00,
2013-01-07 15:00:00,45.2,25.7,30.20,South,181,0.7,1.0,46,0.00,,,0.00,15,TxWx,2013-01-07 20:00:00,
2013-01-07 15:01:00,45.2,25.5,30.20,South,181,0.7,0.0,45,0.00,,,0.00,20,TxWx,2013-01-07 20:01:00,
2013-01-07 15:03:00,45.2,25.0,30.20,South,181,0.7,0.0,44,0.00,,,0.00,46,TxWx,2013-01-07 20:03:00,
2013-01-07 15:04:00,45.3,24.9,30.20,South,177,0.3,0.0,44,0.00,,,0.00,43,TxWx,2013-01-07 20:04:00,
2013-01-07 15:06:00,45.6,24.1,30.20,SE,126,0.3,0.0,42,0.00,,,0.00,38,TxWx,2013-01-07 20:06:00,
2013-01-07 15:08:00,45.6,24.9,30.20,SSW,193,0.7,0.0,43,0.00,,,0.00,47,TxWx,2013-01-07 20:08:00,
2013-01-07 15:10:00,45.6,24.1,30.20,ESE,110,1.1,1.1,42,0.00,,,0.00,42,TxWx,2013-01-07 20:10:00,
2013-01-07 15:11:00,45.8,23.5,30.20,ESE,102,0.7,0.0,41,0.00,,,0.00,39,TxWx,2013-01-07 20:11:00,
2013-01-07 15:12:00,45.8,23.5,30.20,ESE,114,1.1,1.1,41,0.00,,,0.00,37,TxWx,2013-01-07 20:12:00,
2013-01-07 15:13:00,45.8,23.4,30.20,ESE,123,0.7,0.0,40,0.00,,,0.00,46,TxWx,2013-01-07 20:13:00,
2013-01-07 15:15:00,45.7,23.6,30.20,SE,142,0.7,0.0,41,0.00,,,0.00,28,TxWx,2013-01-07 20:15:00,
2013-01-07 15:16:00,45.6,23.9,30.20,SSE,154,0.7,0.0,42,0.00,,,0.00,29,TxWx,2013-01-07 20:16:00,
2013-01-07 15:17:00,45.6,23.9,30.20,SSE,156,0.3,0.0,42,0.00,,,0.00,29,TxWx,2013-01-07 20:17:00,
2013-01-07 15:18:00,45.7,23.9,30.20,South,177,0.3,0.0,41,0.00,,,0.00,40,TxWx,2013-01-07 20:18:00,
2013-01-07 15:19:00,45.7,24.1,30.20,SSW,192,0.7,0.0,42,0.00,,,0.00,28,TxWx,2013-01-07 20:19:00,
2013-01-07 15:20:00,45.5,24.7,30.20,SSE,166,0.7,0.0,43,0.00,,,0.00,16,TxWx,2013-01-07 20:20:00,
2013-01-07 15:22:00,45.6,24.3,30.20,SSE,165,0.3,0.0,42,0.00,,,0.00,11,TxWx,2013-01-07 20:22:00,
2013-01-07 15:23:00,45.6,24.1,30.20,South,176,0.0,0.0,42,0.00,,,0.00,12,TxWx,2013-01-07 20:23:00,
2013-01-07 15:24:00,45.6,24.5,30.20,SSE,162,0.7,0.0,43,0.00,,,0.00,14,TxWx,2013-01-07 20:24:00,
2013-01-07 15:25:00,45.5,24.7,30.20,South,173,0.3,0.0,43,0.00,,,0.00,16,TxWx,2013-01-07 20:25:00,
2013-01-07 15:27:00,45.5,24.3,30.20,SSE,166,0.7,0.0,43,0.00,,,0.00,12,TxWx,2013-01-07 20:27:00,
2013-01-07 15:28:00,45.5,24.3,30.20,SSE,165,1.1,1.1,43,0.00,,,0.00,13,TxWx,2013-01-07 20:28:00,
2013-01-07 15:29:00,45.5,24.3,30.20,SSE,165,1.1,0.0,43,0.00,,,0.00,13,TxWx,2013-01-07 20:29:00,
2013-01-07 15:31:00,45.1,24.9,30.20,South,170,0.7,0.0,44,0.00,,,0.00,12,TxWx,2013-01-07 20:31:00,
2013-01-07 15:32:00,45.1,24.2,30.20,South,177,0.7,0.0,43,0.00,,,0.00,12,TxWx,2013-01-07 20:32:00,
2013-01-07 15:34:00,45.2,23.3,30.20,SSE,151,1.1,1.1,41,0.00,,,0.00,7,TxWx,2013-01-07 20:34:00,
2013-01-07 15:36:00,45.1,23.6,30.20,South,173,0.7,0.0,42,0.00,,,0.00,8,TxWx,2013-01-07 20:36:00,
2013-01-07 15:37:00,45.0,24.2,30.21,South,171,0.3,0.0,43,0.00,,,0.00,7,TxWx,2013-01-07 20:37:00,
2013-01-07 15:39:00,45.0,24.1,30.21,SSE,162,0.7,1.0,43,0.00,,,0.00,7,TxWx,2013-01-07 20:39:00,
2013-01-07 15:40:00,44.9,23.8,30.21,South,184,0.7,0.0,43,0.00,,,0.00,7,TxWx,2013-01-07 20:40:00,
2013-01-07 15:41:00,44.7,23.9,30.21,SSE,155,1.1,1.1,43,0.00,,,0.00,6,TxWx,2013-01-07 20:41:00,
2013-01-07 15:42:00,44.7,23.3,30.21,South,173,0.7,0.0,42,0.00,,,0.00,6,TxWx,2013-01-07 20:42:00,
2013-01-07 15:44:00,44.7,22.5,30.21,SSE,158,0.7,0.0,41,0.00,,,0.00,6,TxWx,2013-01-07 20:44:00,
2013-01-07 15:45:00,44.8,22.4,30.21,SSE,158,0.7,0.0,40,0.00,,,0.00,6,TxWx,2013-01-07 20:45:00,
2013-01-07 15:46:00,45.0,22.0,30.21,SSE,158,1.1,1.1,39,0.00,,,0.00,6,TxWx,2013-01-07 20:46:00,
2013-01-07 15:47:00,45.0,21.8,30.21,SSE,155,0.7,0.0,39,0.00,,,0.00,6,TxWx,2013-01-07 20:47:00,
2013-01-07 15:49:00,45.1,22.1,30.21,SSE,156,0.3,0.0,39,0.00,,,0.00,5,TxWx,2013-01-07 20:49:00,
2013-01-07 15:50:00,45.0,22.4,30.21,SSE,157,0.3,0.0,40,0.00,,,0.00,5,TxWx,2013-01-07 20:50:00,
2013-01-07 15:51:00,45.1,21.7,30.21,South,172,0.7,1.0,39,0.00,,,0.00,5,TxWx,2013-01-07 20:51:00,
2013-01-07 15:52:00,44.9,21.9,30.21,SSE,162,0.7,1.0,39,0.00,,,0.00,5,TxWx,2013-01-07 20:52:00,
2013-01-07 15:54:00,44.7,22.0,30.21,SSE,165,1.1,1.1,40,0.00,,,0.00,5,TxWx,2013-01-07 20:54:00,
2013-01-07 15:55:00,44.8,21.8,30.21,South,177,0.3,0.0,39,0.00,,,0.00,5,TxWx,2013-01-07 20:55:00,
2013-01-07 15:56:00,45.0,20.5,30.21,SSW,194,1.1,1.1,37,0.00,,,0.00,4,TxWx,2013-01-07 20:56:00,
2013-01-07 15:57:00,44.9,21.1,30.21,SSE,165,0.7,1.0,38,0.00,,,0.00,4,TxWx,2013-01-07 20:57:00,
2013-01-07 16:00:00,44.7,21.5,30.21,SSE,162,1.1,1.1,39,0.00,,,0.00,4,TxWx,2013-01-07 21:00:00,
2013-01-07 16:01:00,44.8,21.3,30.21,SSE,149,0.7,0.0,39,0.00,,,0.00,4,TxWx,2013-01-07 21:01:00,
2013-01-07 16:02:00,44.7,21.9,30.21,SSE,149,0.3,0.0,40,0.00,,,0.00,4,TxWx,2013-01-07 21:02:00,
2013-01-07 16:05:00,44.6,22.0,30.21,South,181,0.7,0.0,40,0.00,,,0.00,3,TxWx,2013-01-07 21:05:00,
2013-01-07 16:07:00,44.3,20.8,30.21,SSE,155,1.1,1.1,38,0.00,,,0.00,3,TxWx,2013-01-07 21:07:00,
2013-01-07 16:08:00,44.5,21.4,30.21,SSE,155,1.1,1.1,39,0.00,,,0.00,3,TxWx,2013-01-07 21:08:00,
2013-01-07 16:10:00,44.6,21.2,30.21,SSE,149,1.1,1.1,39,0.00,,,0.00,3,TxWx,2013-01-07 21:10:00,
2013-01-07 16:12:00,44.4,22.0,30.21,SSE,161,1.1,1.1,40,0.00,,,0.00,3,TxWx,2013-01-07 21:12:00,
2013-01-07 16:13:00,44.4,21.8,30.21,SSE,162,0.7,1.0,40,0.00,,,0.00,3,TxWx,2013-01-07 21:13:00,
2013-01-07 16:15:00,44.3,22.0,30.21,SSE,159,1.1,1.1,40,0.00,,,0.00,3,TxWx,2013-01-07 21:15:00,
2013-01-07 16:17:00,44.2,21.6,30.21,SSE,157,1.1,1.1,40,0.00,,,0.00,3,TxWx,2013-01-07 21:17:00,
2013-01-07 16:18:00,44.3,21.5,30.21,SSE,157,1.1,1.1,40,0.00,,,0.00,3,TxWx,2013-01-07 21:18:00,
2013-01-07 16:20:00,44.3,21.5,30.21,SSE,154,1.1,1.1,39,0.00,,,0.00,3,TxWx,2013-01-07 21:20:00,
2013-01-07 16:21:00,44.4,21.5,30.21,SSE,155,1.1,1.1,39,0.00,,,0.00,3,TxWx,2013-01-07 21:21:00,
2013-01-07 16:22:00,44.3,21.8,30.21,SSE,156,1.1,1.1,40,0.00,,,0.00,3,TxWx,2013-01-07 21:22:00,
2013-01-07 16:23:00,44.4,21.6,30.22,SSE,156,1.1,1.1,39,0.00,,,0.00,3,TxWx,2013-01-07 21:23:00,
2013-01-07 16:26:00,44.2,21.8,30.22,SSE,155,1.1,1.1,40,0.00,,,0.00,3,TxWx,2013-01-07 21:26:00,
2013-01-07 16:27:00,44.2,21.9,30.22,SE,144,0.7,0.0,40,0.00,,,0.00,3,TxWx,2013-01-07 21:27:00,
2013-01-07 16:29:00,44.1,22.0,30.22,SSE,156,1.1,1.1,41,0.00,,,0.00,3,TxWx,2013-01-07 21:29:00,
2013-01-07 16:31:00,43.9,22.1,30.22,SSE,156,1.5,1.5,41,0.00,,,0.00,3,TxWx,2013-01-07 21:31:00,
2013-01-07 16:32:00,44.0,21.9,30.22,SSE,148,1.1,1.1,41,0.00,,,0.00,3,TxWx,2013-01-07 21:32:00,
2013-01-07 16:34:00,43.8,22.0,30.22,SSE,148,1.1,1.1,41,0.00,,,0.00,3,TxWx,2013-01-07 21:34:00,
2013-01-07 16:36:00,43.6,22.4,30.22,SSE,153,1.1,1.1,42,0.00,,,0.00,3,TxWx,2013-01-07 21:36:00,
2013-01-07 16:38:00,43.4,22.5,30.22,SSE,150,1.1,1.1,43,0.00,,,0.00,2,TxWx,2013-01-07 21:38:00,
2013-01-07 16:39:00,43.3,22.6,30.22,SSE,156,1.5,1.5,43,0.00,,,0.00,2,TxWx,2013-01-07 21:39:00,
2013-01-07 16:41:00,43.3,22.5,30.22,SSE,156,1.5,1.5,43,0.00,,,0.00,2,TxWx,2013-01-07 21:41:00,
2013-01-07 16:43:00,42.9,22.8,30.22,SSE,155,1.5,1.5,44,0.00,,,0.00,2,TxWx,2013-01-07 21:43:00,
2013-01-07 16:44:00,43.0,22.5,30.22,SSE,150,1.1,1.1,43,0.00,,,0.00,2,TxWx,2013-01-07 21:44:00,
2013-01-07 16:46:00,43.0,22.6,30.22,SSE,151,1.1,1.1,43,0.00,,,0.00,2,TxWx,2013-01-07 21:46:00,
2013-01-07 16:47:00,43.0,22.6,30.22,SSE,151,1.1,1.1,44,0.00,,,0.00,2,TxWx,2013-01-07 21:47:00,
2013-01-07 16:48:00,42.8,22.8,30.22,SSE,155,1.1,1.1,44,0.00,,,0.00,2,TxWx,2013-01-07 21:48:00,
2013-01-07 16:49:00,42.7,23.0,30.22,SSE,155,1.9,1.9,45,0.00,,,0.00,2,TxWx,2013-01-07 21:49:00,
2013-01-07 16:51:00,42.5,23.0,30.22,SSE,156,1.5,1.5,45,0.00,,,0.00,2,TxWx,2013-01-07 21:51:00,
2013-01-07 16:52:00,42.3,23.2,30.22,SSE,156,1.5,1.5,46,0.00,,,0.00,2,TxWx,2013-01-07 21:52:00,
2013-01-07 16:53:00,42.3,23.1,30.22,SSE,153,1.5,1.5,46,0.00,,,0.00,3,TxWx,2013-01-07 21:53:00,
2013-01-07 16:54:00,42.3,23.1,30.22,SE,143,0.7,1.0,46,0.00,,,0.00,3,TxWx,2013-01-07 21:54:00,
2013-01-07 16:56:00,42.4,22.8,30.22,SSE,151,1.9,1.9,45,0.00,,,0.00,3,TxWx,2013-01-07 21:56:00,
2013-01-07 16:57:00,42.3,23.0,30.22,SSE,152,1.1,1.1,45,0.00,,,0.00,3,TxWx,2013-01-07 21:57:00,
2013-01-07 16:58:00,42.2,23.0,30.22,SSE,154,1.9,1.9,46,0.00,,,0.00,3,TxWx,2013-01-07 21:58:00,
2013-01-07 16:59:00,42.2,23.0,30.22,SSE,155,1.5,1.5,46,0.00,,,0.00,3,TxWx,2013-01-07 21:59:00,
2013-01-07 17:02:00,41.9,22.9,30.22,SSE,150,1.5,1.5,46,0.00,,,0.00,3,TxWx,2013-01-07 22:02:00,
2013-01-07 17:03:00,41.9,23.2,30.22,SSE,151,1.5,1.5,47,0.00,,,0.00,3,TxWx,2013-01-07 22:03:00,
2013-01-07 17:04:00,41.8,23.3,30.22,SSE,151,1.1,1.1,47,0.00,,,0.00,3,TxWx,2013-01-07 22:04:00,
2013-01-07 17:07:00,41.7,23.3,30.22,SSE,150,1.9,1.9,47,0.00,,,0.00,3,TxWx,2013-01-07 22:07:00,
2013-01-07 17:08:00,41.8,23.1,30.22,SSE,150,1.5,1.5,47,0.00,,,0.00,3,TxWx,2013-01-07 22:08:00,
2013-01-07 17:10:00,41.7,23.3,30.22,SSE,147,1.5,1.5,47,0.00,,,0.00,3,TxWx,2013-01-07 22:10:00,
2013-01-07 17:12:00,41.6,23.5,30.22,SSE,151,1.9,1.9,48,0.00,,,0.00,3,TxWx,2013-01-07 22:12:00,
2013-01-07 17:13:00,41.4,23.6,30.22,SE,142,1.1,1.1,48,0.00,,,0.00,3,TxWx,2013-01-07 22:13:00,
2013-01-07 17:15:00,41.4,23.5,30.22,SSE,157,1.1,1.1,48,0.00,,,0.00,3,TxWx,2013-01-07 22:15:00,
2013-01-07 17:17:00,41.2,23.6,30.22,SE,140,0.7,1.0,49,0.00,,,0.00,2,TxWx,2013-01-07 22:17:00,
2013-01-07 17:18:00,41.3,23.5,30.22,SSE,151,1.5,1.5,48,0.00,,,0.00,2,TxWx,2013-01-07 22:18:00,
2013-01-07 17:20:00,41.1,23.7,30.22,SSE,149,1.5,1.5,49,0.00,,,0.00,2,TxWx,2013-01-07 22:20:00,
2013-01-07 17:22:00,41.0,23.8,30.22,SSE,150,1.5,1.5,50,0.00,,,0.00,2,TxWx,2013-01-07 22:22:00,
2013-01-07 17:23:00,40.9,23.8,30.23,SSE,151,1.5,1.5,50,0.00,,,0.00,2,TxWx,2013-01-07 22:23:00,
2013-01-07 17:24:00,40.9,23.8,30.23,SSE,153,1.5,1.5,50,0.00,,,0.00,2,TxWx,2013-01-07 22:24:00,
2013-01-07 17:25:00,40.8,23.9,30.23,SSE,147,1.5,1.5,50,0.00,,,0.00,2,TxWx,2013-01-07 22:25:00,
2013-01-07 17:27:00,40.9,23.9,30.23,SSE,151,1.5,1.5,50,0.00,,,0.00,2,TxWx,2013-01-07 22:27:00,
2013-01-07 17:28:00,40.8,23.9,30.23,SSE,152,1.1,1.1,50,0.00,,,0.00,2,TxWx,2013-01-07 22:28:00,
2013-01-07 17:29:00,40.9,23.8,30.23,SSE,149,1.1,1.1,50,0.00,,,0.00,2,TxWx,2013-01-07 22:29:00,
2013-01-07 17:30:00,40.8,23.9,30.23,SSE,149,1.1,1.1,50,0.00,,,0.00,1,TxWx,2013-01-07 22:30:00,
2013-01-07 17:33:00,41.0,23.7,30.23,SE,140,1.1,1.1,49,0.00,,,0.00,1,TxWx,2013-01-07 22:33:00,
2013-01-07 17:34:00,41.1,23.7,30.23,SE,145,0.7,1.0,49,0.00,,,0.00,1,TxWx,2013-01-07 22:34:00,
2013-01-07 17:35:00,41.1,23.7,30.23,SE,145,1.1,1.1,49,0.00,,,0.00,1,TxWx,2013-01-07 22:35:00,
2013-01-07 17:38:00,41.0,23.8,30.23,SE,146,1.1,1.1,50,0.00,,,0.00,1,TxWx,2013-01-07 22:38:00,
2013-01-07 17:39:00,40.9,23.7,30.23,SE,146,1.1,1.1,50,0.00,,,0.00,1,TxWx,2013-01-07 22:39:00,
2013-01-07 17:40:00,40.7,24.0,30.23,SSE,147,1.1,1.1,50,0.00,,,0.00,1,TxWx,2013-01-07 22:40:00,
2013-01-07 17:43:00,40.7,23.9,30.23,SSE,147,1.5,1.5,50,0.00,,,0.00,1,TxWx,2013-01-07 22:43:00,
2013-01-07 17:44:00,40.7,23.9,30.23,SE,145,1.5,1.5,50,0.00,,,0.00,1,TxWx,2013-01-07 22:44:00,
2013-01-07 17:46:00,40.7,23.9,30.23,SSE,147,1.1,1.1,50,0.00,,,0.00,1,TxWx,2013-01-07 22:46:00,
2013-01-07 17:48:00,40.6,24.0,30.23,SE,142,1.1,1.1,51,0.00,,,0.00,0,TxWx,2013-01-07 22:48:00,
2013-01-07 17:49:00,40.6,24.0,30.23,SE,146,1.1,1.1,51,0.00,,,0.00,0,TxWx,2013-01-07 22:49:00,
2013-01-07 17:51:00,40.4,24.0,30.23,SE,145,1.1,1.1,51,0.00,,,0.00,0,TxWx,2013-01-07 22:51:00,
2013-01-07 17:53:00,40.4,23.9,30.23,SE,145,1.5,1.5,51,0.00,,,0.00,0,TxWx,2013-01-07 22:53:00,
2013-01-07 17:54:00,40.4,23.9,30.23,SE,144,1.1,1.1,51,0.00,,,0.00,0,TxWx,2013-01-07 22:54:00,
2013-01-07 17:56:00,40.4,23.9,30.23,SE,144,1.1,1.1,51,0.00,,,0.00,0,TxWx,2013-01-07 22:56:00,
2013-01-07 17:58:00,40.3,24.0,30.23,SE,143,1.1,1.1,51,0.00,,,0.00,0,TxWx,2013-01-07 22:58:00,
2013-01-07 17:59:00,40.2,24.0,30.23,SE,145,1.5,1.5,52,0.00,,,0.00,0,TxWx,2013-01-07 22:59:00,
2013-01-07 18:01:00,40.1,24.0,30.23,SE,144,0.7,1.0,52,0.00,,,0.00,0,TxWx,2013-01-07 23:01:00,
2013-01-07 18:03:00,40.1,24.0,30.23,SE,143,1.1,1.1,52,0.00,,,0.00,0,TxWx,2013-01-07 23:03:00,
2013-01-07 18:04:00,40.1,24.0,30.23,SSE,150,1.1,1.1,52,0.00,,,0.00,0,TxWx,2013-01-07 23:04:00,
2013-01-07 18:06:00,40.1,23.9,30.23,SE,144,1.1,1.1,52,0.00,,,0.00,0,TxWx,2013-01-07 23:06:00,
2013-01-07 18:08:00,40.0,24.0,30.23,SSE,148,1.5,1.5,52,0.00,,,0.00,0,TxWx,2013-01-07 23:08:00,
2013-01-07 18:09:00,39.9,24.0,30.23,SSE,150,1.1,1.1,52,0.00,,,0.00,0,TxWx,2013-01-07 23:09:00,
2013-01-07 18:10:00,39.9,23.9,30.23,SSE,150,1.1,1.1,52,0.00,,,0.00,0,TxWx,2013-01-07 23:10:00,
2013-01-07 18:11:00,39.9,24.0,30.23,SE,141,1.1,1.1,52,0.00,,,0.00,0,TxWx,2013-01-07 23:11:00,
2013-01-07 18:14:00,39.8,24.1,30.23,SSE,148,0.7,1.0,53,0.00,,,0.00,0,TxWx,2013-01-07 23:14:00,
2013-01-07 18:15:00,39.7,24.2,30.23,SE,144,1.1,1.1,53,0.00,,,0.00,0,TxWx,2013-01-07 23:15:00,
2013-01-07 18:16:00,39.7,24.1,30.23,SE,140,1.1,1.1,53,0.00,,,0.00,0,TxWx,2013-01-07 23:16:00,
2013-01-07 18:19:00,39.6,24.0,30.23,SSE,150,1.5,1.5,53,0.00,,,0.00,0,TxWx,2013-01-07 23:19:00,
2013-01-07 18:20:00,39.5,24.1,30.23,SSE,149,1.1,1.1,53,0.00,,,0.00,0,TxWx,2013-01-07 23:20:00,
2013-01-07 18:22:00,39.4,24.0,30.23,SSE,148,1.1,1.1,53,0.00,,,0.00,0,TxWx,2013-01-07 23:22:00,
2013-01-07 18:24:00,39.2,24.1,30.23,SSE,148,1.1,1.1,54,0.00,,,0.00,0,TxWx,2013-01-07 23:24:00,
2013-01-07 18:25:00,39.2,24.1,30.23,SE,139,1.1,1.1,54,0.00,,,0.00,0,TxWx,2013-01-07 23:25:00,
2013-01-07 18:27:00,39.1,24.1,30.24,SE,144,1.1,1.1,54,0.00,,,0.00,0,TxWx,2013-01-07 23:27:00,
2013-01-07 18:29:00,38.9,24.1,30.24,SE,135,0.7,1.0,55,0.00,,,0.00,0,TxWx,2013-01-07 23:29:00,
2013-01-07 18:30:00,38.9,24.0,30.24,SE,137,1.1,1.1,54,0.00,,,0.00,0,TxWx,2013-01-07 23:30:00,
2013-01-07 18:32:00,38.9,24.1,30.24,SE,145,1.1,1.1,55,0.00,,,0.00,0,TxWx,2013-01-07 23:32:00,
2013-01-07 18:34:00,38.8,24.1,30.24,SE,145,0.7,0.0,55,0.00,,,0.00,0,TxWx,2013-01-07 23:34:00,
2013-01-07 18:36:00,38.7,24.1,30.24,SE,143,0.7,1.0,55,0.00,,,0.00,0,TxWx,2013-01-07 23:36:00,
2013-01-07 18:37:00,38.7,24.0,30.24,SE,146,1.1,1.1,55,0.00,,,0.00,0,TxWx,2013-01-07 23:37:00,
2013-01-07 18:39:00,38.5,24.1,30.24,SE,144,1.1,1.1,55,0.00,,,0.00,0,TxWx,2013-01-07 23:39:00,
2013-01-07 18:41:00,38.4,24.1,30.24,SE,141,1.1,1.1,56,0.00,,,0.00,0,TxWx,2013-01-07 23:41:00,
2013-01-07 18:42:00,38.3,24.2,30.24,SE,145,1.1,1.1,56,0.00,,,0.00,0,TxWx,2013-01-07 23:42:00,
2013-01-07 18:45:00,37.8,24.1,30.24,SSE,150,1.1,1.1,57,0.00,,,0.00,0,TxWx,2013-01-07 23:45:00,
2013-01-07 18:46:00,37.8,24.3,30.24,SSE,147,1.1,1.1,57,0.00,,,0.00,0,TxWx,2013-01-07 23:46:00,
2013-01-07 18:47:00,37.7,24.2,30.24,SSE,148,1.1,1.1,57,0.00,,,0.00,0,TxWx,2013-01-07 23:47:00,
2013-01-07 18:48:00,37.6,24.3,30.24,SE,139,0.7,1.0,58,0.00,,,0.00,0,TxWx,2013-01-07 23:48:00,
2013-01-07 18:50:00,37.5,24.3,30.24,SE,133,0.7,0.0,58,0.00,,,0.00,0,TxWx,2013-01-07 23:50:00,
2013-01-07 18:51:00,37.6,24.2,30.24,SE,145,1.1,1.1,58,0.00,,,0.00,0,TxWx,2013-01-07 23:51:00,
2013-01-07 18:52:00,37.6,24.2,30.24,SE,143,0.7,1.0,58,0.00,,,0.00,0,TxWx,2013-01-07 23:52:00,
2013-01-07 18:53:00,37.6,24.2,30.24,SE,129,1.1,1.1,58,0.00,,,0.00,0,TxWx,2013-01-07 23:53:00,
2013-01-07 18:55:00,37.5,24.3,30.24,SE,145,0.7,1.0,58,0.00,,,0.00,0,TxWx,2013-01-07 23:55:00,
2013-01-07 18:56:00,37.6,24.2,30.24,SE,141,0.3,0.0,58,0.00,,,0.00,0,TxWx,2013-01-07 23:56:00,
2013-01-07 18:57:00,37.5,24.3,30.24,SE,138,0.3,0.0,58,0.00,,,0.00,0,TxWx,2013-01-07 23:57:00,
2013-01-07 18:58:00,37.5,24.2,30.24,SE,135,0.7,1.0,58,0.00,,,0.00,0,TxWx,2013-01-07 23:58:00,
2013-01-07 19:00:00,37.3,24.2,30.24,SE,146,1.1,1.1,58,0.00,,,0.00,0,TxWx,2013-01-08 00:00:00,
2013-01-07 19:01:00,37.3,24.2,30.24,SSE,149,0.7,1.0,58,0.00,,,0.00,0,TxWx,2013-01-08 00:01:00,
2013-01-07 19:02:00,37.3,24.2,30.24,SE,146,0.7,0.0,58,0.00,,,0.00,0,TxWx,2013-01-08 00:02:00,
2013-01-07 19:03:00,37.4,24.1,30.24,SE,145,1.1,1.1,58,0.00,,,0.00,0,TxWx,2013-01-08 00:03:00,
2013-01-07 19:05:00,37.4,24.1,30.24,SE,146,1.1,1.1,58,0.00,,,0.00,0,TxWx,2013-01-08 00:05:00,
2013-01-07 19:06:00,37.4,24.1,30.24,SSE,149,0.7,1.0,58,0.00,,,0.00,0,TxWx,2013-01-08 00:06:00,
2013-01-07 19:07:00,37.4,24.2,30.24,SE,146,0.7,0.0,58,0.00,,,0.00,0,TxWx,2013-01-08 00:07:00,
2013-01-07 19:08:00,37.4,24.2,30.24,SE,146,1.1,1.1,58,0.00,,,0.00,0,TxWx,2013-01-08 00:08:00,
2013-01-07 19:10:00,37.2,24.2,30.24,SSE,149,1.5,1.5,58,0.00,,,0.00,0,TxWx,2013-01-08 00:10:00,
2013-01-07 19:11:00,37.2,24.1,30.24,SE,140,0.7,1.0,58,0.00,,,0.00,0,TxWx,2013-01-08 00:11:00,
2013-01-07 19:13:00,37.2,24.1,30.24,SSE,148,0.7,1.0,58,0.00,,,0.00,0,TxWx,2013-01-08 00:13:00,
2013-01-07 19:15:00,37.2,24.2,30.25,SE,141,0.7,1.0,58,0.00,,,0.00,0,TxWx,2013-01-08 00:15:00,
2013-01-07 19:16:00,37.1,24.1,30.25,SE,139,0.7,0.0,58,0.00,,,0.00,0,TxWx,2013-01-08 00:16:00,
2013-01-07 19:18:00,37.0,24.2,30.25,SE,133,0.7,0.0,59,0.00,,,0.00,0,TxWx,2013-01-08 00:18:00,
2013-01-07 19:19:00,37.0,24.1,30.25,SE,132,0.7,0.0,59,0.00,,,0.00,0,TxWx,2013-01-08 00:19:00,
2013-01-07 19:20:00,36.9,24.2,30.25,SE,127,0.3,0.0,59,0.00,,,0.00,0,TxWx,2013-01-08 00:20:00,
2013-01-07 19:22:00,37.0,24.2,30.25,ESE,117,0.7,0.0,59,0.00,,,0.00,0,TxWx,2013-01-08 00:22:00,
2013-01-07 19:23:00,37.1,24.1,30.25,ESE,115,0.7,1.0,58,0.00,,,0.00,0,TxWx,2013-01-08 00:23:00,
2013-01-07 19:24:00,37.1,24.1,30.25,ESE,117,1.1,1.1,58,0.00,,,0.00,0,TxWx,2013-01-08 00:24:00,
2013-01-07 19:25:00,37.1,24.1,30.25,SE,125,0.3,0.0,59,0.00,,,0.00,0,TxWx,2013-01-08 00:25:00,
2013-01-07 19:27:00,37.1,24.0,30.25,ESE,119,1.1,1.1,58,0.00,,,0.00,0,TxWx,2013-01-08 00:27:00,
2013-01-07 19:28:00,37.1,24.0,30.25,ESE,117,0.7,0.0,58,0.00,,,0.00,0,TxWx,2013-01-08 00:28:00,
2013-01-07 19:29:00,37.0,24.1,30.25,ESE,115,1.1,1.1,59,0.00,,,0.00,0,TxWx,2013-01-08 00:29:00,
2013-01-07 19:30:00,37.0,24.1,30.25,ESE,118,0.3,0.0,59,0.00,,,0.00,0,TxWx,2013-01-08 00:30:00,
2013-01-07 19:32:00,37.0,24.1,30.25,SE,124,0.7,1.0,59,0.00,,,0.00,0,TxWx,2013-01-08 00:32:00,
2013-01-07 19:33:00,36.9,24.1,30.25,ESE,120,0.7,0.0,59,0.00,,,0.00,0,TxWx,2013-01-08 00:33:00,
2013-01-07 19:34:00,36.9,24.0,30.25,ESE,118,0.7,0.0,59,0.00,,,0.00,0,TxWx,2013-01-08 00:34:00,
2013-01-07 19:36:00,36.8,23.9,30.25,ESE,116,0.7,0.0,59,0.00,,,0.00,0,TxWx,2013-01-08 00:36:00,
2013-01-07 19:37:00,36.9,23.9,30.25,ESE,115,0.3,0.0,59,0.00,,,0.00,0,TxWx,2013-01-08 00:37:00,
2013-01-07 19:38:00,36.8,23.9,30.25,ESE,117,0.7,0.0,59,0.00,,,0.00,0,TxWx,2013-01-08 00:38:00,
2013-01-07 19:39:00,36.9,23.8,30.25,ESE,116,0.3,0.0,58,0.00,,,0.00,0,TxWx,2013-01-08 00:39:00,
2013-01-07 19:41:00,36.9,23.8,30.25,ESE,118,0.3,0.0,58,0.00,,,0.00,0,TxWx,2013-01-08 00:41:00,
2013-01-07 19:42:00,36.9,23.8,30.25,ESE,116,0.7,0.0,58,0.00,,,0.00,0,TxWx,2013-01-08 00:42:00,
2013-01-07 19:44:00,36.9,23.8,30.25,ESE,118,0.3,0.0,58,0.00,,,0.00,0,TxWx,2013-01-08 00:44:00,
2013-01-07 19:46:00,36.9,23.7,30.25,ESE,115,0.7,0.0,58,0.00,,,0.00,0,TxWx,2013-01-08 00:46:00,
2013-01-07 19:47:00,36.9,23.7,30.24,ESE,115,0.7,0.0,58,0.00,,,0.00,0,TxWx,2013-01-08 00:47:00,
2013-01-07 19:49:00,36.9,23.7,30.24,ESE,114,0.7,0.0,58,0.00,,,0.00,0,TxWx,2013-01-08 00:49:00,
2013-01-07 19:51:00,36.8,23.7,30.25,ESE,114,0.7,0.0,58,0.00,,,0.00,0,TxWx,2013-01-08 00:51:00,
2013-01-07 19:52:00,36.8,23.7,30.24,ESE,118,0.7,0.0,58,0.00,,,0.00,0,TxWx,2013-01-08 00:52:00,
2013-01-07 19:54:00,36.7,23.7,30.25,ESE,114,0.7,0.0,58,0.00,,,0.00,0,TxWx,2013-01-08 00:54:00,
2013-01-07 19:56:00,36.6,23.8,30.24,ESE,122,0.3,0.0,59,0.00,,,0.00,0,TxWx,2013-01-08 00:56:00,
2013-01-07 19:58:00,36.5,23.7,30.24,ESE,117,0.3,0.0,59,0.00,,,0.00,0,TxWx,2013-01-08 00:58:00,
2013-01-07 19:59:00,36.5,23.7,30.24,ESE,120,0.3,0.0,59,0.00,,,0.00,0,TxWx,2013-01-08 00:59:00,
2013-01-07 20:01:00,36.5,23.6,30.24,ESE,113,0.3,0.0,59,0.00,,,0.00,0,TxWx,2013-01-08 01:01:00,
2013-01-07 20:03:00,36.4,23.7,30.24,ESE,115,0.7,0.0,59,0.00,,,0.00,0,TxWx,2013-01-08 01:03:00,
2013-01-07 20:04:00,36.3,23.7,30.24,ESE,120,0.7,0.0,59,0.00,,,0.00,0,TxWx,2013-01-08 01:04:00,
2013-01-07 20:06:00,36.3,23.6,30.24,ESE,120,0.3,0.0,59,0.00,,,0.00,0,TxWx,2013-01-08 01:06:00,
2013-01-07 20:08:00,36.1,23.7,30.24,ESE,120,0.7,0.0,60,0.00,,,0.00,0,TxWx,2013-01-08 01:08:00,
2013-01-07 20:09:00,36.1,23.6,30.24,ESE,120,0.7,0.0,60,0.00,,,0.00,0,TxWx,2013-01-08 01:09:00,
2013-01-07 20:11:00,36.0,23.5,30.24,ESE,117,0.7,1.0,60,0.00,,,0.00,0,TxWx,2013-01-08 01:11:00,
2013-01-07 20:13:00,36.0,23.5,30.24,ESE,115,0.7,0.0,59,0.00,,,0.00,0,TxWx,2013-01-08 01:13:00,
2013-01-07 20:14:00,36.0,23.4,30.23,ESE,118,0.3,0.0,59,0.00,,,0.00,0,TxWx,2013-01-08 01:14:00,
2013-01-07 20:15:00,36.0,23.4,30.23,ESE,118,0.7,0.0,59,0.00,,,0.00,0,TxWx,2013-01-08 01:15:00,
2013-01-07 20:16:00,36.0,23.4,30.23,ESE,113,0.7,1.0,59,0.00,,,0.00,0,TxWx,2013-01-08 01:16:00,
2013-01-07 20:18:00,36.0,23.5,30.23,ESE,117,0.7,0.0,60,0.00,,,0.00,0,TxWx,2013-01-08 01:18:00,
2013-01-07 20:20:00,35.8,23.5,30.23,ESE,123,0.0,0.0,60,0.00,,,0.00,0,TxWx,2013-01-08 01:20:00,
2013-01-07 20:21:00,35.8,23.4,30.23,ESE,121,0.0,0.0,60,0.00,,,0.00,0,TxWx,2013-01-08 01:21:00,
2013-01-07 20:23:00,35.6,23.3,30.23,ESE,120,0.0,0.0,60,0.00,,,0.00,0,TxWx,2013-01-08 01:23:00,
2013-01-07 20:25:00,35.5,23.2,30.23,ESE,110,0.0,0.0,60,0.00,,,0.00,0,TxWx,2013-01-08 01:25:00,
2013-01-07 20:26:00,35.5,23.2,30.23,ESE,108,0.0,0.0,60,0.00,,,0.00,0,TxWx,2013-01-08 01:26:00,
2013-01-07 20:29:00,35.3,23.4,30.23,ESE,109,0.0,0.0,61,0.00,,,0.00,0,TxWx,2013-01-08 01:29:00,
2013-01-07 20:30:00,35.3,23.5,30.23,ESE,107,0.0,0.0,61,0.00,,,0.00,0,TxWx,2013-01-08 01:30:00,
2013-01-07 20:32:00,35.1,23.4,30.23,ESE,112,0.0,0.0,62,0.00,,,0.00,0,TxWx,2013-01-08 01:32:00,
2013-01-07 20:34:00,34.8,23.6,30.23,ESE,114,0.0,0.0,63,0.00,,,0.00,0,TxWx,2013-01-08 01:34:00,
2013-01-07 20:35:00,34.8,23.7,30.23,ESE,114,0.0,0.0,63,0.00,,,0.00,0,TxWx,2013-01-08 01:35:00,
2013-01-07 20:36:00,34.7,23.7,30.23,ESE,114,0.0,0.0,63,0.00,,,0.00,0,TxWx,2013-01-08 01:36:00,
2013-01-07 20:37:00,34.7,23.8,30.23,ESE,114,0.0,0.0,64,0.00,,,0.00,0,TxWx,2013-01-08 01:37:00,
2013-01-07 20:39:00,34.6,24.0,30.23,East,96,0.0,0.0,64,0.00,,,0.00,0,TxWx,2013-01-08 01:39:00,
2013-01-07 20:41:00,34.4,24.1,30.23,East,89,0.0,0.0,65,0.00,,,0.00,0,TxWx,2013-01-08 01:41:00,
2013-01-07 20:42:00,34.4,24.2,30.23,East,87,0.0,0.0,66,0.00,,,0.00,0,TxWx,2013-01-08 01:42:00,
2013-01-07 20:44:00,34.3,24.0,30.23,East,93,0.7,1.0,65,0.00,,,0.00,0,TxWx,2013-01-08 01:44:00,
2013-01-07 20:46:00,34.3,24.0,30.23,East,91,0.3,0.0,65,0.00,,,0.00,0,TxWx,2013-01-08 01:46:00,
2013-01-07 20:47:00,34.3,24.2,30.23,East,89,0.7,0.0,66,0.00,,,0.00,0,TxWx,2013-01-08 01:47:00,
2013-01-07 20:49:00,34.3,24.3,30.23,East,88,0.7,0.0,66,0.00,,,0.00,0,TxWx,2013-01-08 01:49:00,
2013-01-07 20:51:00,34.3,24.5,30.23,East,87,0.3,0.0,66,0.00,,,0.00,0,TxWx,2013-01-08 01:51:00,
2013-01-07 20:53:00,34.3,24.5,30.23,East,87,0.3,0.0,67,0.00,,,0.00,0,TxWx,2013-01-08 01:53:00,
2013-01-07 20:54:00,34.3,24.4,30.23,East,88,0.7,0.0,66,0.00,,,0.00,0,TxWx,2013-01-08 01:54:00,
2013-01-07 20:56:00,34.2,24.4,30.23,East,91,0.3,0.0,66,0.00,,,0.00,0,TxWx,2013-01-08 01:56:00,
2013-01-07 20:58:00,34.3,24.1,30.23,East,90,0.7,0.0,66,0.00,,,0.00,0,TxWx,2013-01-08 01:58:00,
2013-01-07 20:59:00,34.3,24.0,30.23,East,89,0.3,0.0,65,0.00,,,0.00,0,TxWx,2013-01-08 01:59:00,
2013-01-07 21:01:00,34.3,23.9,30.23,East,92,0.3,0.0,65,0.00,,,0.00,0,TxWx,2013-01-08 02:01:00,
2013-01-07 21:02:00,34.3,23.9,30.23,East,92,0.3,0.0,65,0.00,,,0.00,0,TxWx,2013-01-08 02:02:00,
2013-01-07 21:03:00,34.4,23.6,30.23,East,93,0.7,0.0,64,0.00,,,0.00,0,TxWx,2013-01-08 02:03:00,
2013-01-07 21:04:00,34.5,23.8,30.23,East,99,0.3,0.0,64,0.00,,,0.00,0,TxWx,2013-01-08 02:04:00,
2013-01-07 21:07:00,34.6,23.5,30.23,East,98,0.3,0.0,63,0.00,,,0.00,0,TxWx,2013-01-08 02:07:00,
2013-01-07 21:08:00,34.6,23.4,30.23,East,95,0.7,0.0,63,0.00,,,0.00,0,TxWx,2013-01-08 02:08:00,
2013-01-07 21:10:00,34.7,23.4,30.23,East,95,0.3,0.0,63,0.00,,,0.00,0,TxWx,2013-01-08 02:10:00,
2013-01-07 21:12:00,34.7,23.2,30.23,East,100,0.3,0.0,62,0.00,,,0.00,0,TxWx,2013-01-08 02:12:00,
2013-01-07 21:13:00,34.7,23.1,30.23,ESE,105,0.3,0.0,62,0.00,,,0.00,0,TxWx,2013-01-08 02:13:00,
2013-01-07 21:15:00,34.7,22.9,30.23,ESE,104,0.7,0.0,61,0.00,,,0.00,0,TxWx,2013-01-08 02:15:00,
2013-01-07 21:17:00,34.7,22.7,30.23,ESE,104,0.3,0.0,61,0.00,,,0.00,0,TxWx,2013-01-08 02:17:00,
2013-01-07 21:18:00,34.7,22.8,30.23,East,101,0.0,0.0,61,0.00,,,0.00,0,TxWx,2013-01-08 02:18:00,
2013-01-07 21:20:00,34.7,23.0,30.23,East,101,0.0,0.0,61,0.00,,,0.00,0,TxWx,2013-01-08 02:20:00,
2013-01-07 21:22:00,34.7,23.1,30.23,East,99,0.0,0.0,62,0.00,,,0.00,0,TxWx,2013-01-08 02:22:00,
2013-01-07 21:23:00,34.6,23.1,30.23,East,99,0.0,0.0,62,0.00,,,0.00,0,TxWx,2013-01-08 02:23:00,
2013-01-07 21:25:00,34.5,22.5,30.23,East,99,0.0,0.0,61,0.00,,,0.00,0,TxWx,2013-01-08 02:25:00,
2013-01-07 21:27:00,34.5,21.9,30.23,East,89,0.0,0.0,59,0.00,,,0.00,0,TxWx,2013-01-08 02:27:00,
2013-01-07 21:28:00,34.5,22.1,30.23,East,88,0.0,0.0,60,0.00,,,0.00,0,TxWx,2013-01-08 02:28:00,
2013-01-07 21:30:00,34.4,22.4,30.23,East,87,0.0,0.0,61,0.00,,,0.00,0,TxWx,2013-01-08 02:30:00,
2013-01-07 21:32:00,34.3,22.1,30.23,East,89,0.0,0.0,60,0.00,,,0.00,0,TxWx,2013-01-08 02:32:00,
2013-01-07 21:33:00,34.3,21.9,30.23,East,89,0.0,0.0,60,0.00,,,0.00,0,TxWx,2013-01-08 02:33:00,
2013-01-07 21:35:00,34.4,21.9,30.24,East,89,0.0,0.0,59,0.00,,,0.00,0,TxWx,2013-01-08 02:35:00,
2013-01-07 21:37:00,34.5,22.2,30.24,ESE,102,0.0,0.0,60,0.00,,,0.00,0,TxWx,2013-01-08 02:37:00,
2013-01-07 21:38:00,34.4,22.4,30.24,SSE,150,0.0,0.0,61,0.00,,,0.00,0,TxWx,2013-01-08 02:38:00,
2013-01-07 21:39:00,34.3,22.1,30.24,SSE,150,0.0,0.0,60,0.00,,,0.00,0,TxWx,2013-01-08 02:39:00,
2013-01-07 21:40:00,34.3,21.9,30.24,SSE,150,0.0,0.0,60,0.00,,,0.00,0,TxWx,2013-01-08 02:40:00,
2013-01-07 21:42:00,34.2,21.9,30.24,SSE,150,0.0,0.0,60,0.00,,,0.00,0,TxWx,2013-01-08 02:42:00,
2013-01-07 21:43:00,34.1,21.5,30.24,SSE,150,0.0,0.0,59,0.00,,,0.00,0,TxWx,2013-01-08 02:43:00,
2013-01-07 21:44:00,34.2,20.9,30.24,South,188,0.0,0.0,57,0.00,,,0.00,0,TxWx,2013-01-08 02:44:00,
2013-01-07 21:45:00,34.2,20.6,30.24,South,188,0.0,0.0,57,0.00,,,0.00,0,TxWx,2013-01-08 02:45:00,
2013-01-07 21:47:00,34.1,20.5,30.24,South,188,0.0,0.0,56,0.00,,,0.00,0,TxWx,2013-01-08 02:47:00,
2013-01-07 21:48:00,34.1,20.7,30.24,South,188,0.0,0.0,57,0.00,,,0.00,0,TxWx,2013-01-08 02:48:00,
2013-01-07 21:49:00,34.1,20.7,30.24,South,183,0.0,0.0,57,0.00,,,0.00,0,TxWx,2013-01-08 02:49:00,
2013-01-07 21:50:00,34.1,20.7,30.24,South,183,0.0,0.0,57,0.00,,,0.00,0,TxWx,2013-01-08 02:50:00,
2013-01-07 21:53:00,34.1,20.7,30.24,South,183,0.0,0.0,57,0.00,,,0.00,0,TxWx,2013-01-08 02:53:00,
2013-01-07 21:54:00,34.1,20.6,30.24,South,183,0.0,0.0,57,0.00,,,0.00,0,TxWx,2013-01-08 02:54:00,
2013-01-07 21:56:00,34.1,20.5,30.24,South,183,0.0,0.0,57,0.00,,,0.00,0,TxWx,2013-01-08 02:56:00,
2013-01-07 21:58:00,34.1,20.0,30.24,South,183,0.0,0.0,55,0.00,,,0.00,0,TxWx,2013-01-08 02:58:00,
2013-01-07 21:59:00,34.2,20.0,30.24,South,183,0.0,0.0,55,0.00,,,0.00,0,TxWx,2013-01-08 02:59:00,
2013-01-07 22:01:00,34.2,20.0,30.24,South,182,0.0,0.0,55,0.00,,,0.00,0,TxWx,2013-01-08 03:01:00,
2013-01-07 22:03:00,34.2,20.2,30.24,South,182,0.0,0.0,56,0.00,,,0.00,0,TxWx,2013-01-08 03:03:00,
2013-01-07 22:04:00,34.2,20.2,30.24,ESE,119,0.0,0.0,56,0.00,,,0.00,0,TxWx,2013-01-08 03:04:00,
2013-01-07 22:06:00,34.3,20.4,30.23,ESE,107,0.0,0.0,56,0.00,,,0.00,0,TxWx,2013-01-08 03:06:00,
2013-01-07 22:08:00,34.3,21.0,30.23,East,81,0.7,0.0,57,0.00,,,0.00,0,TxWx,2013-01-08 03:08:00,
2013-01-07 22:09:00,34.4,21.2,30.23,ENE,73,1.1,1.1,58,0.00,,,0.00,0,TxWx,2013-01-08 03:09:00,
2013-01-07 22:11:00,34.3,21.2,30.23,ENE,75,1.1,1.1,58,0.00,,,0.00,0,TxWx,2013-01-08 03:11:00,
2013-01-07 22:13:00,34.1,21.4,30.23,ENE,73,1.5,1.5,59,0.00,,,0.00,0,TxWx,2013-01-08 03:13:00,
2013-01-07 22:14:00,33.8,21.2,30.23,ENE,74,1.1,1.1,59,0.00,,,0.00,0,TxWx,2013-01-08 03:14:00,
2013-01-07 22:16:00,33.2,21.1,30.24,East,81,0.7,0.0,60,0.00,,,0.00,0,TxWx,2013-01-08 03:16:00,
2013-01-07 22:18:00,32.8,20.8,30.24,ENE,71,0.0,0.0,60,0.00,,,0.00,0,TxWx,2013-01-08 03:18:00,
2013-01-07 22:19:00,32.7,21.0,30.24,ENE,72,0.0,0.0,61,0.00,,,0.00,0,TxWx,2013-01-08 03:19:00,
2013-01-07 22:20:00,32.7,21.0,30.24,East,80,0.0,0.0,61,0.00,,,0.00,0,TxWx,2013-01-08 03:20:00,
2013-01-07 22:21:00,32.5,22.1,30.24,ESE,121,0.0,0.0,65,0.00,,,0.00,0,TxWx,2013-01-08 03:21:00,
2013-01-07 22:24:00,32.6,22.4,30.24,SE,124,0.0,0.0,65,0.00,,,0.00,0,TxWx,2013-01-08 03:24:00,
2013-01-07 22:25:00,32.6,22.4,30.24,ESE,123,0.0,0.0,65,0.00,,,0.00,0,TxWx,2013-01-08 03:25:00,
2013-01-07 22:27:00,32.6,22.7,30.24,ESE,123,0.0,0.0,66,0.00,,,0.00,0,TxWx,2013-01-08 03:27:00,
2013-01-07 22:29:00,32.6,22.4,30.24,SE,126,0.0,0.0,65,0.00,,,0.00,0,TxWx,2013-01-08 03:29:00,
2013-01-07 22:30:00,32.5,22.4,30.24,SE,128,0.0,0.0,65,0.00,,,0.00,0,TxWx,2013-01-08 03:30:00,
2013-01-07 22:32:00,32.5,22.3,30.24,SE,136,0.0,0.0,65,0.00,,,0.00,0,TxWx,2013-01-08 03:32:00,
2013-01-07 22:34:00,32.5,21.9,30.24,SE,145,0.0,0.0,64,0.00,,,0.00,0,TxWx,2013-01-08 03:34:00,
2013-01-07 22:35:00,32.5,21.9,30.24,SSE,147,0.0,0.0,64,0.00,,,0.00,0,TxWx,2013-01-08 03:35:00,
2013-01-07 22:37:00,32.6,21.6,30.24,SE,134,0.0,0.0,63,0.00,,,0.00,0,TxWx,2013-01-08 03:37:00,
2013-01-07 22:39:00,32.6,21.4,30.24,SE,134,0.0,0.0,62,0.00,,,0.00,0,TxWx,2013-01-08 03:39:00,
2013-01-07 22:40:00,32.6,21.4,30.24,SE,136,0.0,0.0,62,0.00,,,0.00,0,TxWx,2013-01-08 03:40:00,
2013-01-07 22:41:00,32.6,21.4,30.24,SE,136,0.0,0.0,62,0.00,,,0.00,0,TxWx,2013-01-08 03:41:00,
2013-01-07 22:42:00,32.6,21.5,30.24,SE,129,0.0,0.0,63,0.00,,,0.00,0,TxWx,2013-01-08 03:42:00,
2013-01-07 22:44:00,32.5,21.6,30.24,SE,135,0.0,0.0,64,0.00,,,0.00,0,TxWx,2013-01-08 03:44:00,
2013-01-07 22:45:00,32.4,21.6,30.24,SSE,148,0.0,0.0,64,0.00,,,0.00,0,TxWx,2013-01-08 03:45:00,
2013-01-07 22:46:00,32.4,21.6,30.24,SE,144,0.0,0.0,64,0.00,,,0.00,0,TxWx,2013-01-08 03:46:00,
2013-01-07 22:47:00,32.4,21.5,30.24,SE,137,0.0,0.0,63,0.00,,,0.00,0,TxWx,2013-01-08 03:47:00,
2013-01-07 22:49:00,32.3,21.7,30.24,SSE,148,0.0,0.0,64,0.00,,,0.00,0,TxWx,2013-01-08 03:49:00,
2013-01-07 22:50:00,32.3,21.7,30.24,SSE,149,0.0,0.0,64,0.00,,,0.00,0,TxWx,2013-01-08 03:50:00,
2013-01-07 22:51:00,32.3,21.5,30.24,SE,142,0.0,0.0,64,0.00,,,0.00,0,TxWx,2013-01-08 03:51:00,
2013-01-07 22:52:00,32.3,21.6,30.24,SE,131,0.0,0.0,64,0.00,,,0.00,0,TxWx,2013-01-08 03:52:00,
2013-01-07 22:54:00,32.3,21.7,30.24,SE,143,0.0,0.0,64,0.00,,,0.00,0,TxWx,2013-01-08 03:54:00,
2013-01-07 22:55:00,32.3,21.8,30.24,SE,136,0.0,0.0,64,0.00,,,0.00,0,TxWx,2013-01-08 03:55:00,
2013-01-07 22:56:00,32.2,21.9,30.24,SE,124,0.0,0.0,65,0.00,,,0.00,0,TxWx,2013-01-08 03:56:00,
2013-01-07 22:57:00,32.3,21.8,30.24,SE,127,0.0,0.0,64,0.00,,,0.00,0,TxWx,2013-01-08 03:57:00,
2013-01-07 22:59:00,32.2,21.9,30.24,SE,141,0.0,0.0,65,0.00,,,0.00,0,TxWx,2013-01-08 03:59:00,
2013-01-07 23:00:00,32.2,21.9,30.24,SE,141,0.0,0.0,65,0.00,,,0.00,0,TxWx,2013-01-08 04:00:00,
2013-01-07 23:01:00,32.2,21.9,30.24,SE,133,0.0,0.0,65,0.00,,,0.00,0,TxWx,2013-01-08 04:01:00,
2013-01-07 23:02:00,32.1,21.9,30.24,SE,132,0.0,0.0,65,0.00,,,0.00,0,TxWx,2013-01-08 04:02:00,
2013-01-07 23:04:00,32.1,21.9,30.24,SE,146,0.0,0.0,65,0.00,,,0.00,0,TxWx,2013-01-08 04:04:00,
2013-01-07 23:06:00,32.2,21.8,30.24,SE,137,0.0,0.0,65,0.00,,,0.00,0,TxWx,2013-01-08 04:06:00,
2013-01-07 23:07:00,32.1,22.0,30.24,SE,136,0.0,0.0,65,0.00,,,0.00,0,TxWx,2013-01-08 04:07:00,
2013-01-07 23:10:00,32.0,22.1,30.24,SE,137,0.0,0.0,66,0.00,,,0.00,0,TxWx,2013-01-08 04:10:00,
2013-01-07 23:11:00,32.0,22.1,30.24,SE,130,0.0,0.0,66,0.00,,,0.00,0,TxWx,2013-01-08 04:11:00,
2013-01-07 23:13:00,32.1,22.2,30.24,SE,133,0.0,0.0,66,0.00,,,0.00,0,TxWx,2013-01-08 04:13:00,
2013-01-07 23:15:00,32.0,22.3,30.24,SE,141,0.0,0.0,67,0.00,,,0.00,0,TxWx,2013-01-08 04:15:00,
2013-01-07 23:16:00,32.0,22.3,30.24,SE,136,0.0,0.0,67,0.00,,,0.00,0,TxWx,2013-01-08 04:16:00,
2013-01-07 23:17:00,31.9,22.3,30.24,SE,132,0.0,0.0,67,0.00,,,0.00,0,TxWx,2013-01-08 04:17:00,
2013-01-07 23:18:00,31.8,22.4,30.24,SE,132,0.0,0.0,67,0.00,,,0.00,0,TxWx,2013-01-08 04:18:00,
2013-01-07 23:20:00,31.8,22.4,30.24,SE,130,0.0,0.0,67,0.00,,,0.00,0,TxWx,2013-01-08 04:20:00,
2013-01-07 23:21:00,31.7,22.5,30.24,SE,130,0.0,0.0,68,0.00,,,0.00,0,TxWx,2013-01-08 04:21:00,
2013-01-07 23:22:00,31.7,22.5,30.24,SE,129,0.0,0.0,68,0.00,,,0.00,0,TxWx,2013-01-08 04:22:00,
2013-01-07 23:23:00,31.7,22.5,30.24,SE,127,0.0,0.0,68,0.00,,,0.00,0,TxWx,2013-01-08 04:23:00,
2013-01-07 23:25:00,31.7,22.5,30.24,ESE,123,0.0,0.0,68,0.00,,,0.00,0,TxWx,2013-01-08 04:25:00,
2013-01-07 23:26:00,31.7,22.6,30.24,ESE,122,0.0,0.0,68,0.00,,,0.00,0,TxWx,2013-01-08 04:26:00,
2013-01-07 23:27:00,31.7,22.7,30.24,SE,128,0.0,0.0,69,0.00,,,0.00,0,TxWx,2013-01-08 04:27:00,
2013-01-07 23:28:00,31.6,22.7,30.24,ESE,117,0.7,0.0,69,0.00,,,0.00,0,TxWx,2013-01-08 04:28:00,
2013-01-07 23:30:00,31.6,22.7,30.24,ESE,115,0.3,0.0,69,0.00,,,0.00,0,TxWx,2013-01-08 04:30:00,
2013-01-07 23:31:00,31.6,22.8,30.23,ESE,112,0.3,0.0,69,0.00,,,0.00,0,TxWx,2013-01-08 04:31:00,
2013-01-07 23:32:00,31.6,22.8,30.23,ESE,120,0.0,0.0,69,0.00,,,0.00,0,TxWx,2013-01-08 04:32:00,
2013-01-07 23:33:00,31.6,22.8,30.23,SE,128,0.3,0.0,69,0.00,,,0.00,0,TxWx,2013-01-08 04:33:00,
2013-01-07 23:35:00,31.5,22.7,30.23,SE,131,0.0,0.0,69,0.00,,,0.00,0,TxWx,2013-01-08 04:35:00,
2013-01-07 23:36:00,31.5,22.7,30.23,ESE,120,0.3,0.0,69,0.00,,,0.00,0,TxWx,2013-01-08 04:36:00,
2013-01-07 23:37:00,31.5,22.7,30.23,SE,130,0.7,0.0,69,0.00,,,0.00,0,TxWx,2013-01-08 04:37:00,
2013-01-07 23:38:00,31.5,22.6,30.23,SE,143,0.7,0.0,69,0.00,,,0.00,0,TxWx,2013-01-08 04:38:00,
2013-01-07 23:41:00,31.6,22.7,30.24,ESE,112,0.0,0.0,69,0.00,,,0.00,0,TxWx,2013-01-08 04:41:00,
2013-01-07 23:43:00,31.7,22.8,30.24,ESE,119,0.0,0.0,69,0.00,,,0.00,0,TxWx,2013-01-08 04:43:00,
2013-01-07 23:46:00,31.7,22.8,30.24,ESE,118,0.0,0.0,69,0.00,,,0.00,0,TxWx,2013-01-08 04:46:00,
2013-01-07 23:47:00,31.7,22.6,30.24,ESE,122,0.0,0.0,68,0.00,,,0.00,0,TxWx,2013-01-08 04:47:00,
2013-01-07 23:48:00,31.7,22.5,30.24,ESE,120,0.0,0.0,68,0.00,,,0.00,0,TxWx,2013-01-08 04:48:00,
2013-01-07 23:49:00,31.8,22.5,30.24,ESE,117,0.0,0.0,68,0.00,,,0.00,0,TxWx,2013-01-08 04:49:00,
2013-01-07 23:51:00,31.8,22.4,30.24,ESE,114,0.0,0.0,67,0.00,,,0.00,0,TxWx,2013-01-08 04:51:00,
2013-01-07 23:52:00,31.8,22.4,30.24,SE,127,0.0,0.0,67,0.00,,,0.00,0,TxWx,2013-01-08 04:52:00,
2013-01-07 23:54:00,31.8,22.3,30.24,ESE,115,0.0,0.0,67,0.00,,,0.00,0,TxWx,2013-01-08 04:54:00,
2013-01-07 23:56:00,31.8,22.5,30.24,ESE,120,0.3,0.0,68,0.00,,,0.00,0,TxWx,2013-01-08 04:56:00,
2013-01-07 23:57:00,31.7,22.6,30.24,SE,128,0.0,0.0,68,0.00,,,0.00,0,TxWx,2013-01-08 04:57:00,
2013-01-07 23:59:00,31.7,22.3,30.24,ESE,108,0.0,0.0,67,0.00,,,0.00,0,TxWx,2013-01-08 04:59:00,